Wetterdaten: Dienstag, 16.08.2016
Datum Zeit Temp. A. Feuchte A. Luftdruck Regen Wind Richtung Richtung Sonnenschein ET UV Solar Taupunkt Windchill Windben Empfang
16.08.2016 00:00 16,4 C 92 % 1017,2 hPa 0,0 l/m 0,0 km/h (0 Bft) O 79 0 min 0,000 mm 0,0 UV-I 0 W/m 15,1 C 16,4 C 0,0 km/h (0 Bft) 97,14 %
16.08.2016 00:02 16,4 C 92 % 1017,3 hPa 0,0 l/m 1,0 km/h (0 Bft) O 79 0 min 0,000 mm 0,0 UV-I 0 W/m 15,1 C 16,4 C 3,2 km/h (1 Bft) 93,33 %
16.08.2016 00:04 16,3 C 92 % 1017,3 hPa 0,0 l/m 1,9 km/h (1 Bft) O 79 0 min 0,000 mm 0,0 UV-I 0 W/m 15,0 C 16,3 C 3,2 km/h (1 Bft) 100,00 %
16.08.2016 00:06 16,3 C 92 % 1017,3 hPa 0,0 l/m 2,0 km/h (1 Bft) O-SO 111 0 min 0,000 mm 0,0 UV-I 0 W/m 15,0 C 16,3 C 3,2 km/h (1 Bft) 100,00 %
16.08.2016 00:08 16,2 C 92 % 1017,3 hPa 0,0 l/m 1,1 km/h (1 Bft) O-SO 111 0 min 0,000 mm 0,0 UV-I 0 W/m 14,9 C 16,2 C 3,2 km/h (1 Bft) 100,00 %
16.08.2016 00:10 16,2 C 92 % 1017,3 hPa 0,0 l/m 1,0 km/h (0 Bft) O-SO 111 0 min 0,000 mm 0,0 UV-I 0 W/m 14,9 C 16,2 C 3,2 km/h (1 Bft) 98,00 %
16.08.2016 00:12 16,1 C 92 % 1017,2 hPa 0,0 l/m 2,5 km/h (1 Bft) O-SO 111 0 min 0,000 mm 0,0 UV-I 0 W/m 14,8 C 16,1 C 3,2 km/h (1 Bft) 100,00 %
16.08.2016 00:14 16,1 C 92 % 1017,2 hPa 0,0 l/m 2,0 km/h (1 Bft) O-SO 111 0 min 0,000 mm 0,0 UV-I 0 W/m 14,8 C 16,1 C 3,2 km/h (1 Bft) 97,87 %
16.08.2016 00:16 16,2 C 92 % 1017,2 hPa 0,0 l/m 2,6 km/h (1 Bft) O-SO 111 0 min 0,000 mm 0,0 UV-I 0 W/m 14,9 C 16,2 C 3,2 km/h (1 Bft) 100,00 %
16.08.2016 00:18 16,2 C 92 % 1017,2 hPa 0,0 l/m 2,4 km/h (1 Bft) O-SO 111 0 min 0,000 mm 0,0 UV-I 0 W/m 14,9 C 16,2 C 3,2 km/h (1 Bft) 100,00 %
16.08.2016 00:20 16,1 C 92 % 1017,2 hPa 0,0 l/m 3,1 km/h (1 Bft) SO 126 0 min 0,000 mm 0,0 UV-I 0 W/m 14,8 C 16,1 C 4,8 km/h (1 Bft) 100,00 %
16.08.2016 00:22 16,0 C 92 % 1017,2 hPa 0,0 l/m 4,8 km/h (1 Bft) S-SO 163 0 min 0,000 mm 0,0 UV-I 0 W/m 14,7 C 16,0 C 6,4 km/h (2 Bft) 100,00 %
16.08.2016 00:24 15,9 C 92 % 1017,2 hPa 0,0 l/m 5,0 km/h (1 Bft) S-SO 164 0 min 0,000 mm 0,0 UV-I 0 W/m 14,6 C 15,9 C 6,4 km/h (2 Bft) 100,00 %
16.08.2016 00:26 15,8 C 93 % 1017,2 hPa 0,0 l/m 4,4 km/h (1 Bft) S-SO 165 0 min 0,000 mm 0,0 UV-I 0 W/m 14,7 C 15,8 C 6,4 km/h (2 Bft) 100,00 %
16.08.2016 00:28 15,8 C 93 % 1017,2 hPa 0,0 l/m 3,9 km/h (1 Bft) S-SO 165 0 min 0,000 mm 0,0 UV-I 0 W/m 14,7 C 15,8 C 6,4 km/h (2 Bft) 100,00 %
16.08.2016 00:30 15,8 C 93 % 1017,2 hPa 0,0 l/m 3,4 km/h (1 Bft) S-SO 165 0 min 0,000 mm 0,0 UV-I 0 W/m 14,7 C 15,8 C 6,4 km/h (2 Bft) 100,00 %
16.08.2016 00:32 15,8 C 93 % 1017,3 hPa 0,0 l/m 3,7 km/h (1 Bft) S 175 0 min 0,000 mm 0,0 UV-I 0 W/m 14,7 C 15,8 C 6,4 km/h (2 Bft) 100,00 %
16.08.2016 00:34 15,8 C 94 % 1017,2 hPa 0,0 l/m 3,0 km/h (1 Bft) S 175 0 min 0,000 mm 0,0 UV-I 0 W/m 14,8 C 15,8 C 4,8 km/h (1 Bft) 98,11 %
16.08.2016 00:36 15,9 C 94 % 1017,2 hPa 0,0 l/m 1,8 km/h (1 Bft) S 175 0 min 0,000 mm 0,0 UV-I 0 W/m 14,9 C 15,9 C 3,2 km/h (1 Bft) 97,87 %
16.08.2016 00:38 15,8 C 93 % 1017,2 hPa 0,0 l/m 0,4 km/h (0 Bft) S 175 0 min 0,000 mm 0,0 UV-I 0 W/m 14,7 C 15,8 C 1,6 km/h (1 Bft) 100,00 %
16.08.2016 00:40 15,8 C 93 % 1017,2 hPa 0,0 l/m 0,0 km/h (0 Bft) S 175 0 min 0,000 mm 0,0 UV-I 0 W/m 14,7 C 15,8 C 1,6 km/h (1 Bft) 100,00 %
16.08.2016 00:42 15,8 C 93 % 1017,1 hPa 0,0 l/m 0,0 km/h (0 Bft) S 175 0 min 0,000 mm 0,0 UV-I 0 W/m 14,7 C 15,8 C 1,6 km/h (1 Bft) 100,00 %
16.08.2016 00:44 15,8 C 94 % 1017,1 hPa 0,0 l/m 1,1 km/h (1 Bft) S 175 0 min 0,000 mm 0,0 UV-I 0 W/m 14,8 C 15,8 C 1,6 km/h (1 Bft) 100,00 %
16.08.2016 00:46 15,9 C 94 % 1017,1 hPa 0,0 l/m 0,5 km/h (0 Bft) S 175 0 min 0,000 mm 0,0 UV-I 0 W/m 14,9 C 15,9 C 1,6 km/h (1 Bft) 100,00 %
16.08.2016 00:48 16,0 C 94 % 1017,0 hPa 0,0 l/m 0,0 km/h (0 Bft) S 175 0 min 0,000 mm 0,0 UV-I 0 W/m 15,0 C 16,0 C 0,0 km/h (0 Bft) 100,00 %
16.08.2016 00:50 16,0 C 94 % 1017,0 hPa 0,0 l/m 0,0 km/h (0 Bft) S 175 0 min 0,000 mm 0,0 UV-I 0 W/m 15,0 C 16,0 C 0,0 km/h (0 Bft) 100,00 %
16.08.2016 00:52 16,0 C 94 % 1017,0 hPa 0,0 l/m 0,0 km/h (0 Bft) S 175 0 min 0,000 mm 0,0 UV-I 0 W/m 15,0 C 16,0 C 0,0 km/h (0 Bft) 100,00 %
16.08.2016 00:54 16,0 C 94 % 1017,0 hPa 0,0 l/m 0,5 km/h (0 Bft) S 175 0 min 0,000 mm 0,0 UV-I 0 W/m 15,0 C 16,0 C 3,2 km/h (1 Bft) 100,00 %
16.08.2016 00:56 15,9 C 93 % 1017,1 hPa 0,0 l/m 1,3 km/h (1 Bft) S 175 0 min 0,000 mm 0,0 UV-I 0 W/m 14,8 C 15,9 C 3,2 km/h (1 Bft) 100,00 %
16.08.2016 00:58 15,9 C 93 % 1017,0 hPa 0,0 l/m 0,1 km/h (0 Bft) S 175 0 min 0,000 mm 0,0 UV-I 0 W/m 14,8 C 15,9 C 1,6 km/h (1 Bft) 100,00 %
16.08.2016 01:00 15,9 C 93 % 1017,0 hPa 0,0 l/m 0,0 km/h (0 Bft) S 175 0 min 0,000 mm 0,0 UV-I 0 W/m 14,8 C 15,9 C 0,0 km/h (0 Bft) 100,00 %
16.08.2016 01:02 15,9 C 94 % 1017,0 hPa 0,0 l/m 0,0 km/h (0 Bft) S 175 0 min 0,000 mm 0,0 UV-I 0 W/m 14,9 C 15,9 C 0,0 km/h (0 Bft) 97,87 %
16.08.2016 01:04 15,9 C 94 % 1017,0 hPa 0,0 l/m 0,0 km/h (0 Bft) S 175 0 min 0,000 mm 0,0 UV-I 0 W/m 14,9 C 15,9 C 0,0 km/h (0 Bft) 100,00 %
16.08.2016 01:06 15,8 C 93 % 1017,0 hPa 0,0 l/m 0,0 km/h (0 Bft) S 175 0 min 0,000 mm 0,0 UV-I 0 W/m 14,7 C 15,8 C 0,0 km/h (0 Bft) 100,00 %
16.08.2016 01:08 15,7 C 93 % 1016,9 hPa 0,0 l/m 0,0 km/h (0 Bft) S 175 0 min 0,000 mm 0,0 UV-I 0 W/m 14,6 C 15,7 C 0,0 km/h (0 Bft) 100,00 %
16.08.2016 01:10 15,6 C 94 % 1016,9 hPa 0,0 l/m 0,0 km/h (0 Bft) S 175 0 min 0,000 mm 0,0 UV-I 0 W/m 14,6 C 15,6 C 0,0 km/h (0 Bft) 100,00 %
16.08.2016 01:12 15,6 C 94 % 1016,9 hPa 0,0 l/m 0,0 km/h (0 Bft) S 175 0 min 0,000 mm 0,0 UV-I 0 W/m 14,6 C 15,6 C 0,0 km/h (0 Bft) 100,00 %
16.08.2016 01:14 15,5 C 94 % 1016,9 hPa 0,0 l/m 0,0 km/h (0 Bft) S 175 0 min 0,000 mm 0,0 UV-I 0 W/m 14,5 C 15,5 C 0,0 km/h (0 Bft) 100,00 %
16.08.2016 01:16 15,4 C 94 % 1017,0 hPa 0,0 l/m 0,0 km/h (0 Bft) S 175 0 min 0,000 mm 0,0 UV-I 0 W/m 14,4 C 15,4 C 0,0 km/h (0 Bft) 100,00 %
16.08.2016 01:18 15,4 C 94 % 1017,0 hPa 0,0 l/m 0,0 km/h (0 Bft) S 175 0 min 0,000 mm 0,0 UV-I 0 W/m 14,4 C 15,4 C 0,0 km/h (0 Bft) 100,00 %
16.08.2016 01:20 15,4 C 94 % 1016,9 hPa 0,0 l/m 0,6 km/h (0 Bft) S 175 0 min 0,000 mm 0,0 UV-I 0 W/m 14,4 C 15,4 C 3,2 km/h (1 Bft) 100,00 %
16.08.2016 01:22 15,3 C 94 % 1016,9 hPa 0,0 l/m 1,5 km/h (1 Bft) S 175 0 min 0,000 mm 0,0 UV-I 0 W/m 14,3 C 15,3 C 3,2 km/h (1 Bft) 100,00 %
16.08.2016 01:24 15,3 C 94 % 1016,8 hPa 0,0 l/m 2,5 km/h (1 Bft) S 175 0 min 0,000 mm 0,0 UV-I 0 W/m 14,3 C 15,3 C 3,2 km/h (1 Bft) 97,87 %
16.08.2016 01:26 15,3 C 94 % 1016,7 hPa 0,0 l/m 1,3 km/h (1 Bft) S 175 0 min 0,000 mm 0,0 UV-I 0 W/m 14,3 C 15,3 C 3,2 km/h (1 Bft) 97,87 %
16.08.2016 01:28 15,2 C 94 % 1016,7 hPa 0,0 l/m 0,7 km/h (0 Bft) S 175 0 min 0,000 mm 0,0 UV-I 0 W/m 14,2 C 15,2 C 3,2 km/h (1 Bft) 98,00 %
16.08.2016 01:30 15,3 C 94 % 1016,8 hPa 0,0 l/m 3,4 km/h (1 Bft) S 175 0 min 0,000 mm 0,0 UV-I 0 W/m 14,3 C 15,3 C 4,8 km/h (1 Bft) 97,87 %
16.08.2016 01:32 15,3 C 95 % 1016,7 hPa 0,0 l/m 1,6 km/h (1 Bft) S 175 0 min 0,000 mm 0,0 UV-I 0 W/m 14,5 C 15,3 C 4,8 km/h (1 Bft) 97,62 %
16.08.2016 01:34 15,3 C 95 % 1016,8 hPa 0,0 l/m 0,4 km/h (0 Bft) S 175 0 min 0,000 mm 0,0 UV-I 0 W/m 14,5 C 15,3 C 1,6 km/h (1 Bft) 97,87 %
16.08.2016 01:36 15,3 C 95 % 1016,8 hPa 0,0 l/m 0,0 km/h (0 Bft) S 175 0 min 0,000 mm 0,0 UV-I 0 W/m 14,5 C 15,3 C 0,0 km/h (0 Bft) 97,87 %
16.08.2016 01:38 15,3 C 95 % 1016,9 hPa 0,0 l/m 0,0 km/h (0 Bft) S 175 0 min 0,000 mm 0,0 UV-I 0 W/m 14,5 C 15,3 C 0,0 km/h (0 Bft) 94,00 %
16.08.2016 01:40 15,3 C 95 % 1016,8 hPa 0,0 l/m 0,0 km/h (0 Bft) S 175 0 min 0,000 mm 0,0 UV-I 0 W/m 14,5 C 15,3 C 0,0 km/h (0 Bft) 98,00 %
16.08.2016 01:42 15,4 C 95 % 1016,8 hPa 0,0 l/m 0,0 km/h (0 Bft) S 175 0 min 0,000 mm 0,0 UV-I 0 W/m 14,6 C 15,4 C 0,0 km/h (0 Bft) 97,37 %
16.08.2016 01:44 15,4 C 95 % 1016,8 hPa 0,0 l/m 0,0 km/h (0 Bft) S 175 0 min 0,000 mm 0,0 UV-I 0 W/m 14,6 C 15,4 C 0,0 km/h (0 Bft) 97,87 %
16.08.2016 01:46 15,4 C 95 % 1016,8 hPa 0,0 l/m 0,0 km/h (0 Bft) S 175 0 min 0,000 mm 0,0 UV-I 0 W/m 14,6 C 15,4 C 0,0 km/h (0 Bft) 98,00 %
16.08.2016 01:48 15,3 C 95 % 1016,8 hPa 0,0 l/m 0,8 km/h (0 Bft) S 175 0 min 0,000 mm 0,0 UV-I 0 W/m 14,5 C 15,3 C 3,2 km/h (1 Bft) 98,00 %
16.08.2016 01:50 15,1 C 94 % 1016,8 hPa 0,0 l/m 0,0 km/h (0 Bft) S 175 0 min 0,000 mm 0,0 UV-I 0 W/m 14,1 C 15,1 C 0,0 km/h (0 Bft) 97,87 %
16.08.2016 01:52 14,9 C 94 % 1016,8 hPa 0,0 l/m 0,0 km/h (0 Bft) S 175 0 min 0,000 mm 0,0 UV-I 0 W/m 13,9 C 14,9 C 0,0 km/h (0 Bft) 97,87 %
16.08.2016 01:54 14,8 C 94 % 1016,8 hPa 0,0 l/m 0,0 km/h (0 Bft) S 175 0 min 0,000 mm 0,0 UV-I 0 W/m 13,8 C 14,8 C 1,6 km/h (1 Bft) 95,74 %
16.08.2016 01:56 14,9 C 95 % 1016,8 hPa 0,0 l/m 0,6 km/h (0 Bft) S 175 0 min 0,000 mm 0,0 UV-I 0 W/m 14,1 C 14,9 C 1,6 km/h (1 Bft) 95,74 %
16.08.2016 01:58 14,9 C 95 % 1016,8 hPa 0,0 l/m 0,0 km/h (0 Bft) S 175 0 min 0,000 mm 0,0 UV-I 0 W/m 14,1 C 14,9 C 0,0 km/h (0 Bft) 97,87 %
16.08.2016 02:00 14,9 C 95 % 1016,8 hPa 0,0 l/m 0,0 km/h (0 Bft) S 175 0 min 0,000 mm 0,0 UV-I 0 W/m 14,1 C 14,9 C 0,0 km/h (0 Bft) 100,00 %
16.08.2016 02:02 15,0 C 95 % 1016,8 hPa 0,0 l/m 0,0 km/h (0 Bft) S 175 0 min 0,000 mm 0,0 UV-I 0 W/m 14,2 C 15,0 C 0,0 km/h (0 Bft) 92,11 %
16.08.2016 02:04 15,1 C 95 % 1016,7 hPa 0,0 l/m 0,0 km/h (0 Bft) S 175 0 min 0,000 mm 0,0 UV-I 0 W/m 14,3 C 15,1 C 0,0 km/h (0 Bft) 97,87 %
16.08.2016 02:06 15,1 C 95 % 1016,7 hPa 0,0 l/m 0,0 km/h (0 Bft) S 175 0 min 0,000 mm 0,0 UV-I 0 W/m 14,3 C 15,1 C 0,0 km/h (0 Bft) 98,00 %
16.08.2016 02:08 15,1 C 95 % 1016,7 hPa 0,0 l/m 0,0 km/h (0 Bft) S 175 0 min 0,000 mm 0,0 UV-I 0 W/m 14,3 C 15,1 C 0,0 km/h (0 Bft) 98,00 %
16.08.2016 02:10 15,0 C 95 % 1016,7 hPa 0,0 l/m 0,0 km/h (0 Bft) S 175 0 min 0,000 mm 0,0 UV-I 0 W/m 14,2 C 15,0 C 0,0 km/h (0 Bft) 100,00 %
16.08.2016 02:12 14,9 C 95 % 1016,7 hPa 0,0 l/m 0,8 km/h (0 Bft) S 175 0 min 0,000 mm 0,0 UV-I 0 W/m 14,1 C 14,9 C 1,6 km/h (1 Bft) 100,00 %
16.08.2016 02:14 14,9 C 95 % 1016,7 hPa 0,0 l/m 2,0 km/h (1 Bft) S 175 0 min 0,000 mm 0,0 UV-I 0 W/m 14,1 C 14,9 C 3,2 km/h (1 Bft) 100,00 %
16.08.2016 02:16 14,8 C 94 % 1016,7 hPa 0,0 l/m 1,3 km/h (1 Bft) S 175 0 min 0,000 mm 0,0 UV-I 0 W/m 13,8 C 14,8 C 3,2 km/h (1 Bft) 98,39 %
16.08.2016 02:18 14,8 C 95 % 1016,7 hPa 0,0 l/m 0,1 km/h (0 Bft) S 175 0 min 0,000 mm 0,0 UV-I 0 W/m 14,0 C 14,8 C 1,6 km/h (1 Bft) 100,00 %
16.08.2016 02:20 14,8 C 95 % 1016,7 hPa 0,0 l/m 0,0 km/h (0 Bft) S 175 0 min 0,000 mm 0,0 UV-I 0 W/m 14,0 C 14,8 C 0,0 km/h (0 Bft) 100,00 %
16.08.2016 02:22 14,8 C 95 % 1016,7 hPa 0,0 l/m 0,0 km/h (0 Bft) S 175 0 min 0,000 mm 0,0 UV-I 0 W/m 14,0 C 14,8 C 0,0 km/h (0 Bft) 97,37 %
16.08.2016 02:24 14,8 C 95 % 1016,8 hPa 0,0 l/m 0,0 km/h (0 Bft) S 175 0 min 0,000 mm 0,0 UV-I 0 W/m 14,0 C 14,8 C 1,6 km/h (1 Bft) 100,00 %
16.08.2016 02:26 14,8 C 95 % 1016,7 hPa 0,0 l/m 0,0 km/h (0 Bft) S 175 0 min 0,000 mm 0,0 UV-I 0 W/m 14,0 C 14,8 C 0,0 km/h (0 Bft) 95,74 %
16.08.2016 02:28 14,8 C 95 % 1016,7 hPa 0,0 l/m 0,0 km/h (0 Bft) S 175 0 min 0,000 mm 0,0 UV-I 0 W/m 14,0 C 14,8 C 0,0 km/h (0 Bft) 100,00 %
16.08.2016 02:30 14,8 C 95 % 1016,7 hPa 0,0 l/m 0,0 km/h (0 Bft) S 175 0 min 0,000 mm 0,0 UV-I 0 W/m 14,0 C 14,8 C 0,0 km/h (0 Bft) 100,00 %
16.08.2016 02:32 14,8 C 95 % 1016,7 hPa 0,0 l/m 1,5 km/h (1 Bft) S 175 0 min 0,000 mm 0,0 UV-I 0 W/m 14,0 C 14,8 C 3,2 km/h (1 Bft) 94,74 %
16.08.2016 02:34 14,8 C 95 % 1016,7 hPa 0,0 l/m 3,4 km/h (1 Bft) S 175 0 min 0,000 mm 0,0 UV-I 0 W/m 14,0 C 14,8 C 4,8 km/h (1 Bft) 98,11 %
16.08.2016 02:36 14,9 C 95 % 1016,8 hPa 0,0 l/m 2,3 km/h (1 Bft) S 175 0 min 0,000 mm 0,0 UV-I 0 W/m 14,1 C 14,9 C 3,2 km/h (1 Bft) 100,00 %
16.08.2016 02:38 14,8 C 95 % 1016,8 hPa 0,0 l/m 1,7 km/h (1 Bft) S 175 0 min 0,000 mm 0,0 UV-I 0 W/m 14,0 C 14,8 C 3,2 km/h (1 Bft) 98,39 %
16.08.2016 02:40 14,8 C 95 % 1016,8 hPa 0,0 l/m 0,6 km/h (0 Bft) S 175 0 min 0,000 mm 0,0 UV-I 0 W/m 14,0 C 14,8 C 1,6 km/h (1 Bft) 100,00 %
16.08.2016 02:42 14,8 C 95 % 1016,8 hPa 0,0 l/m 1,1 km/h (1 Bft) S 175 0 min 0,000 mm 0,0 UV-I 0 W/m 14,0 C 14,8 C 1,6 km/h (1 Bft) 100,00 %
16.08.2016 02:44 14,8 C 95 % 1016,8 hPa 0,0 l/m 0,0 km/h (0 Bft) S 175 0 min 0,000 mm 0,0 UV-I 0 W/m 14,0 C 14,8 C 1,6 km/h (1 Bft) 98,00 %
16.08.2016 02:46 14,8 C 95 % 1016,8 hPa 0,0 l/m 0,0 km/h (0 Bft) S 175 0 min 0,000 mm 0,0 UV-I 0 W/m 14,0 C 14,8 C 0,0 km/h (0 Bft) 97,56 %
16.08.2016 02:48 14,7 C 95 % 1016,9 hPa 0,0 l/m 1,1 km/h (1 Bft) S 175 0 min 0,000 mm 0,0 UV-I 0 W/m 13,9 C 14,7 C 3,2 km/h (1 Bft) 100,00 %
16.08.2016 02:50 14,6 C 95 % 1016,8 hPa 0,0 l/m 1,1 km/h (1 Bft) S 175 0 min 0,000 mm 0,0 UV-I 0 W/m 13,8 C 14,6 C 1,6 km/h (1 Bft) 100,00 %
16.08.2016 02:52 14,6 C 95 % 1016,8 hPa 0,0 l/m 0,1 km/h (0 Bft) S 175 0 min 0,000 mm 0,0 UV-I 0 W/m 13,8 C 14,6 C 1,6 km/h (1 Bft) 100,00 %
16.08.2016 02:54 14,6 C 95 % 1016,8 hPa 0,0 l/m 0,5 km/h (0 Bft) S 175 0 min 0,000 mm 0,0 UV-I 0 W/m 13,8 C 14,6 C 1,6 km/h (1 Bft) 96,23 %
16.08.2016 02:56 14,5 C 95 % 1016,8 hPa 0,0 l/m 1,6 km/h (1 Bft) S 175 0 min 0,000 mm 0,0 UV-I 0 W/m 13,7 C 14,5 C 3,2 km/h (1 Bft) 100,00 %
16.08.2016 02:58 14,4 C 95 % 1016,8 hPa 0,0 l/m 4,0 km/h (1 Bft) S 175 0 min 0,000 mm 0,0 UV-I 0 W/m 13,6 C 14,4 C 4,8 km/h (1 Bft) 100,00 %
16.08.2016 03:00 14,4 C 95 % 1016,8 hPa 0,0 l/m 3,5 km/h (1 Bft) S 175 0 min 0,000 mm 0,0 UV-I 0 W/m 13,6 C 14,4 C 4,8 km/h (1 Bft) 100,00 %
16.08.2016 03:02 14,5 C 95 % 1016,7 hPa 0,0 l/m 1,4 km/h (1 Bft) S 175 0 min 0,000 mm 0,0 UV-I 0 W/m 13,7 C 14,5 C 3,2 km/h (1 Bft) 100,00 %
16.08.2016 03:04 14,6 C 95 % 1016,7 hPa 0,0 l/m 0,3 km/h (0 Bft) S 175 0 min 0,000 mm 0,0 UV-I 0 W/m 13,8 C 14,6 C 1,6 km/h (1 Bft) 100,00 %
16.08.2016 03:06 14,6 C 95 % 1016,7 hPa 0,0 l/m 1,0 km/h (0 Bft) S 175 0 min 0,000 mm 0,0 UV-I 0 W/m 13,8 C 14,6 C 1,6 km/h (1 Bft) 98,00 %
16.08.2016 03:08 14,7 C 96 % 1016,7 hPa 0,0 l/m 0,8 km/h (0 Bft) S 175 0 min 0,000 mm 0,0 UV-I 0 W/m 14,1 C 14,7 C 1,6 km/h (1 Bft) 97,87 %
16.08.2016 03:10 14,7 C 96 % 1016,7 hPa 0,0 l/m 0,5 km/h (0 Bft) S 175 0 min 0,000 mm 0,0 UV-I 0 W/m 14,1 C 14,7 C 1,6 km/h (1 Bft) 100,00 %
16.08.2016 03:12 14,7 C 96 % 1016,8 hPa 0,0 l/m 0,6 km/h (0 Bft) S 175 0 min 0,000 mm 0,0 UV-I 0 W/m 14,1 C 14,7 C 3,2 km/h (1 Bft) 94,29 %
16.08.2016 03:14 14,7 C 95 % 1016,7 hPa 0,0 l/m 0,5 km/h (0 Bft) S 175 0 min 0,000 mm 0,0 UV-I 0 W/m 13,9 C 14,7 C 1,6 km/h (1 Bft) 100,00 %
16.08.2016 03:16 14,6 C 95 % 1016,8 hPa 0,0 l/m 0,0 km/h (0 Bft) S 175 0 min 0,000 mm 0,0 UV-I 0 W/m 13,8 C 14,6 C 0,0 km/h (0 Bft) 97,87 %
16.08.2016 03:18 14,6 C 96 % 1016,7 hPa 0,0 l/m 1,0 km/h (0 Bft) S 175 0 min 0,000 mm 0,0 UV-I 0 W/m 14,0 C 14,6 C 3,2 km/h (1 Bft) 100,00 %
16.08.2016 03:20 14,7 C 96 % 1016,7 hPa 0,0 l/m 0,8 km/h (0 Bft) S 175 0 min 0,000 mm 0,0 UV-I 0 W/m 14,1 C 14,7 C 1,6 km/h (1 Bft) 97,37 %
16.08.2016 03:22 14,7 C 96 % 1016,7 hPa 0,0 l/m 0,1 km/h (0 Bft) S 175 0 min 0,000 mm 0,0 UV-I 0 W/m 14,1 C 14,7 C 1,6 km/h (1 Bft) 100,00 %
16.08.2016 03:24 14,8 C 96 % 1016,7 hPa 0,0 l/m 0,0 km/h (0 Bft) S 175 0 min 0,000 mm 0,0 UV-I 0 W/m 14,2 C 14,8 C 1,6 km/h (1 Bft) 98,00 %
16.08.2016 03:26 14,8 C 96 % 1016,7 hPa 0,0 l/m 0,0 km/h (0 Bft) S 175 0 min 0,000 mm 0,0 UV-I 0 W/m 14,2 C 14,8 C 1,6 km/h (1 Bft) 97,37 %
16.08.2016 03:28 14,8 C 96 % 1016,7 hPa 0,0 l/m 0,4 km/h (0 Bft) S 175 0 min 0,000 mm 0,0 UV-I 0 W/m 14,2 C 14,8 C 1,6 km/h (1 Bft) 98,11 %
16.08.2016 03:30 14,7 C 95 % 1016,7 hPa 0,0 l/m 0,0 km/h (0 Bft) S 175 0 min 0,000 mm 0,0 UV-I 0 W/m 13,9 C 14,7 C 0,0 km/h (0 Bft) 97,87 %
16.08.2016 03:32 14,5 C 95 % 1016,7 hPa 0,0 l/m 0,0 km/h (0 Bft) S 175 0 min 0,000 mm 0,0 UV-I 0 W/m 13,7 C 14,5 C 0,0 km/h (0 Bft) 97,44 %
16.08.2016 03:34 14,4 C 95 % 1016,7 hPa 0,0 l/m 0,0 km/h (0 Bft) S 175 0 min 0,000 mm 0,0 UV-I 0 W/m 13,6 C 14,4 C 0,0 km/h (0 Bft) 96,00 %
16.08.2016 03:36 14,4 C 95 % 1016,6 hPa 0,0 l/m 0,0 km/h (0 Bft) S 175 0 min 0,000 mm 0,0 UV-I 0 W/m 13,6 C 14,4 C 0,0 km/h (0 Bft) 98,00 %
16.08.2016 03:38 14,4 C 95 % 1016,6 hPa 0,0 l/m 0,0 km/h (0 Bft) S 175 0 min 0,000 mm 0,0 UV-I 0 W/m 13,6 C 14,4 C 0,0 km/h (0 Bft) 95,74 %
16.08.2016 03:40 14,3 C 95 % 1016,6 hPa 0,0 l/m 0,0 km/h (0 Bft) S 175 0 min 0,000 mm 0,0 UV-I 0 W/m 13,5 C 14,3 C 0,0 km/h (0 Bft) 96,23 %
16.08.2016 03:42 14,3 C 95 % 1016,6 hPa 0,0 l/m 0,0 km/h (0 Bft) S 175 0 min 0,000 mm 0,0 UV-I 0 W/m 13,5 C 14,3 C 0,0 km/h (0 Bft) 97,37 %
16.08.2016 03:44 14,3 C 95 % 1016,7 hPa 0,0 l/m 0,6 km/h (0 Bft) S 175 0 min 0,000 mm 0,0 UV-I 0 W/m 13,5 C 14,3 C 3,2 km/h (1 Bft) 97,87 %
16.08.2016 03:46 14,3 C 95 % 1016,6 hPa 0,0 l/m 1,1 km/h (1 Bft) S 175 0 min 0,000 mm 0,0 UV-I 0 W/m 13,5 C 14,3 C 1,6 km/h (1 Bft) 97,56 %
16.08.2016 03:48 14,2 C 95 % 1016,6 hPa 0,0 l/m 0,8 km/h (0 Bft) S 175 0 min 0,000 mm 0,0 UV-I 0 W/m 13,4 C 14,2 C 1,6 km/h (1 Bft) 98,21 %
16.08.2016 03:50 14,2 C 95 % 1016,6 hPa 0,0 l/m 0,0 km/h (0 Bft) S 175 0 min 0,000 mm 0,0 UV-I 0 W/m 13,4 C 14,2 C 1,6 km/h (1 Bft) 97,87 %
16.08.2016 03:52 14,2 C 95 % 1016,6 hPa 0,0 l/m 0,4 km/h (0 Bft) S 175 0 min 0,000 mm 0,0 UV-I 0 W/m 13,4 C 14,2 C 3,2 km/h (1 Bft) 97,14 %
16.08.2016 03:54 14,2 C 96 % 1016,6 hPa 0,0 l/m 1,3 km/h (1 Bft) S 175 0 min 0,000 mm 0,0 UV-I 0 W/m 13,6 C 14,2 C 3,2 km/h (1 Bft) 98,11 %
16.08.2016 03:56 14,2 C 96 % 1016,6 hPa 0,0 l/m 0,0 km/h (0 Bft) S 175 0 min 0,000 mm 0,0 UV-I 0 W/m 13,6 C 14,2 C 0,0 km/h (0 Bft) 96,00 %
16.08.2016 03:58 14,2 C 96 % 1016,6 hPa 0,0 l/m 0,0 km/h (0 Bft) S 175 0 min 0,000 mm 0,0 UV-I 0 W/m 13,6 C 14,2 C 1,6 km/h (1 Bft) 97,87 %
16.08.2016 04:00 14,2 C 96 % 1016,6 hPa 0,0 l/m 0,0 km/h (0 Bft) S 175 0 min 0,000 mm 0,0 UV-I 0 W/m 13,6 C 14,2 C 0,0 km/h (0 Bft) 100,00 %
16.08.2016 04:02 14,2 C 95 % 1016,5 hPa 0,0 l/m 0,1 km/h (0 Bft) S 175 0 min 0,000 mm 0,0 UV-I 0 W/m 13,4 C 14,2 C 1,6 km/h (1 Bft) 94,44 %
16.08.2016 04:04 14,1 C 95 % 1016,5 hPa 0,0 l/m 2,3 km/h (1 Bft) S 175 0 min 0,000 mm 0,0 UV-I 0 W/m 13,3 C 14,1 C 3,2 km/h (1 Bft) 100,00 %
16.08.2016 04:06 14,1 C 96 % 1016,5 hPa 0,0 l/m 2,8 km/h (1 Bft) S 175 0 min 0,000 mm 0,0 UV-I 0 W/m 13,5 C 14,1 C 4,8 km/h (1 Bft) 100,00 %
16.08.2016 04:08 14,2 C 96 % 1016,5 hPa 0,0 l/m 3,1 km/h (1 Bft) S 175 0 min 0,000 mm 0,0 UV-I 0 W/m 13,6 C 14,2 C 4,8 km/h (1 Bft) 100,00 %
16.08.2016 04:10 14,3 C 96 % 1016,5 hPa 0,0 l/m 1,3 km/h (1 Bft) S 175 0 min 0,000 mm 0,0 UV-I 0 W/m 13,7 C 14,3 C 3,2 km/h (1 Bft) 100,00 %
16.08.2016 04:12 14,3 C 96 % 1016,5 hPa 0,0 l/m 0,2 km/h (0 Bft) S 175 0 min 0,000 mm 0,0 UV-I 0 W/m 13,7 C 14,3 C 1,6 km/h (1 Bft) 100,00 %
16.08.2016 04:14 14,4 C 96 % 1016,5 hPa 0,0 l/m 0,6 km/h (0 Bft) S 175 0 min 0,000 mm 0,0 UV-I 0 W/m 13,8 C 14,4 C 3,2 km/h (1 Bft) 100,00 %
16.08.2016 04:16 14,3 C 96 % 1016,4 hPa 0,0 l/m 2,2 km/h (1 Bft) S 175 0 min 0,000 mm 0,0 UV-I 0 W/m 13,7 C 14,3 C 3,2 km/h (1 Bft) 100,00 %
16.08.2016 04:18 14,4 C 96 % 1016,4 hPa 0,0 l/m 0,4 km/h (0 Bft) S 175 0 min 0,000 mm 0,0 UV-I 0 W/m 13,8 C 14,4 C 1,6 km/h (1 Bft) 100,00 %
16.08.2016 04:20 14,4 C 96 % 1016,4 hPa 0,0 l/m 0,1 km/h (0 Bft) S 175 0 min 0,000 mm 0,0 UV-I 0 W/m 13,8 C 14,4 C 1,6 km/h (1 Bft) 97,87 %
16.08.2016 04:22 14,4 C 96 % 1016,3 hPa 0,0 l/m 0,1 km/h (0 Bft) S 175 0 min 0,000 mm 0,0 UV-I 0 W/m 13,8 C 14,4 C 1,6 km/h (1 Bft) 100,00 %
16.08.2016 04:24 14,5 C 97 % 1016,4 hPa 0,0 l/m 0,5 km/h (0 Bft) S 175 0 min 0,000 mm 0,0 UV-I 0 W/m 14,0 C 14,5 C 3,2 km/h (1 Bft) 100,00 %
16.08.2016 04:26 14,4 C 96 % 1016,3 hPa 0,0 l/m 0,0 km/h (0 Bft) S 175 0 min 0,000 mm 0,0 UV-I 0 W/m 13,8 C 14,4 C 0,0 km/h (0 Bft) 100,00 %
16.08.2016 04:28 14,3 C 95 % 1016,3 hPa 0,0 l/m 0,0 km/h (0 Bft) S 175 0 min 0,000 mm 0,0 UV-I 0 W/m 13,5 C 14,3 C 0,0 km/h (0 Bft) 100,00 %
16.08.2016 04:30 14,3 C 96 % 1016,3 hPa 0,0 l/m 0,0 km/h (0 Bft) S 175 0 min 0,000 mm 0,0 UV-I 0 W/m 13,7 C 14,3 C 0,0 km/h (0 Bft) 100,00 %
16.08.2016 04:32 14,3 C 96 % 1016,3 hPa 0,0 l/m 0,0 km/h (0 Bft) S 175 0 min 0,000 mm 0,0 UV-I 0 W/m 13,7 C 14,3 C 0,0 km/h (0 Bft) 100,00 %
16.08.2016 04:34 14,3 C 96 % 1016,3 hPa 0,0 l/m 0,0 km/h (0 Bft) S 175 0 min 0,000 mm 0,0 UV-I 0 W/m 13,7 C 14,3 C 0,0 km/h (0 Bft) 100,00 %
16.08.2016 04:36 14,3 C 96 % 1016,3 hPa 0,0 l/m 0,0 km/h (0 Bft) S 175 0 min 0,000 mm 0,0 UV-I 0 W/m 13,7 C 14,3 C 1,6 km/h (1 Bft) 100,00 %
16.08.2016 04:38 14,2 C 95 % 1016,3 hPa 0,0 l/m 0,0 km/h (0 Bft) S 175 0 min 0,000 mm 0,0 UV-I 0 W/m 13,4 C 14,2 C 0,0 km/h (0 Bft) 100,00 %
16.08.2016 04:40 14,2 C 95 % 1016,4 hPa 0,0 l/m 0,0 km/h (0 Bft) S 175 0 min 0,000 mm 0,0 UV-I 0 W/m 13,4 C 14,2 C 0,0 km/h (0 Bft) 100,00 %
16.08.2016 04:42 14,1 C 95 % 1016,3 hPa 0,0 l/m 0,0 km/h (0 Bft) S 175 0 min 0,000 mm 0,0 UV-I 0 W/m 13,3 C 14,1 C 0,0 km/h (0 Bft) 100,00 %
16.08.2016 04:44 14,1 C 95 % 1016,3 hPa 0,0 l/m 0,0 km/h (0 Bft) S 175 0 min 0,000 mm 0,0 UV-I 0 W/m 13,3 C 14,1 C 0,0 km/h (0 Bft) 97,87 %
16.08.2016 04:46 14,0 C 96 % 1016,3 hPa 0,0 l/m 0,0 km/h (0 Bft) S 175 0 min 0,000 mm 0,0 UV-I 0 W/m 13,4 C 14,0 C 0,0 km/h (0 Bft) 100,00 %
16.08.2016 04:48 13,9 C 96 % 1016,3 hPa 0,0 l/m 0,3 km/h (0 Bft) S 175 0 min 0,000 mm 0,0 UV-I 0 W/m 13,3 C 13,9 C 1,6 km/h (1 Bft) 100,00 %
16.08.2016 04:50 13,8 C 95 % 1016,3 hPa 0,0 l/m 0,2 km/h (0 Bft) S 175 0 min 0,000 mm 0,0 UV-I 0 W/m 13,0 C 13,8 C 1,6 km/h (1 Bft) 100,00 %
16.08.2016 04:52 13,8 C 95 % 1016,3 hPa 0,0 l/m 0,0 km/h (0 Bft) S 175 0 min 0,000 mm 0,0 UV-I 0 W/m 13,0 C 13,8 C 0,0 km/h (0 Bft) 97,87 %
16.08.2016 04:54 13,8 C 96 % 1016,3 hPa 0,0 l/m 0,0 km/h (0 Bft) S 175 0 min 0,000 mm 0,0 UV-I 0 W/m 13,2 C 13,8 C 1,6 km/h (1 Bft) 100,00 %
16.08.2016 04:56 13,9 C 96 % 1016,3 hPa 0,0 l/m 0,0 km/h (0 Bft) S 175 0 min 0,000 mm 0,0 UV-I 0 W/m 13,3 C 13,9 C 0,0 km/h (0 Bft) 100,00 %
16.08.2016 04:58 13,9 C 96 % 1016,3 hPa 0,0 l/m 0,0 km/h (0 Bft) S 175 0 min 0,000 mm 0,0 UV-I 0 W/m 13,3 C 13,9 C 0,0 km/h (0 Bft) 97,87 %
16.08.2016 05:00 14,0 C 96 % 1016,3 hPa 0,0 l/m 0,0 km/h (0 Bft) S 175 0 min 0,000 mm 0,0 UV-I 0 W/m 13,4 C 14,0 C 0,0 km/h (0 Bft) 98,11 %
16.08.2016 05:02 13,9 C 96 % 1016,2 hPa 0,0 l/m 0,0 km/h (0 Bft) S 175 0 min 0,000 mm 0,0 UV-I 0 W/m 13,3 C 13,9 C 0,0 km/h (0 Bft) 100,00 %
16.08.2016 05:04 13,9 C 96 % 1016,2 hPa 0,0 l/m 0,0 km/h (0 Bft) S 175 0 min 0,000 mm 0,0 UV-I 0 W/m 13,3 C 13,9 C 0,0 km/h (0 Bft) 97,14 %
16.08.2016 05:06 13,9 C 96 % 1016,2 hPa 0,0 l/m 0,0 km/h (0 Bft) S 175 0 min 0,000 mm 0,0 UV-I 0 W/m 13,3 C 13,9 C 0,0 km/h (0 Bft) 100,00 %
16.08.2016 05:08 13,9 C 96 % 1016,2 hPa 0,0 l/m 0,0 km/h (0 Bft) S 175 0 min 0,000 mm 0,0 UV-I 0 W/m 13,3 C 13,9 C 0,0 km/h (0 Bft) 100,00 %
16.08.2016 05:10 13,9 C 96 % 1016,2 hPa 0,0 l/m 0,0 km/h (0 Bft) S 175 0 min 0,000 mm 0,0 UV-I 0 W/m 13,3 C 13,9 C 0,0 km/h (0 Bft) 100,00 %
16.08.2016 05:12 13,8 C 96 % 1016,3 hPa 0,0 l/m 0,0 km/h (0 Bft) S 175 0 min 0,000 mm 0,0 UV-I 0 W/m 13,2 C 13,8 C 0,0 km/h (0 Bft) 100,00 %
16.08.2016 05:14 13,8 C 96 % 1016,3 hPa 0,0 l/m 0,0 km/h (0 Bft) S 175 0 min 0,000 mm 0,0 UV-I 0 W/m 13,2 C 13,8 C 1,6 km/h (1 Bft) 98,46 %
16.08.2016 05:16 13,8 C 96 % 1016,3 hPa 0,0 l/m 0,0 km/h (0 Bft) S 175 0 min 0,000 mm 0,0 UV-I 0 W/m 13,2 C 13,8 C 0,0 km/h (0 Bft) 100,00 %
16.08.2016 05:18 13,8 C 96 % 1016,3 hPa 0,0 l/m 0,0 km/h (0 Bft) S 175 0 min 0,000 mm 0,0 UV-I 0 W/m 13,2 C 13,8 C 0,0 km/h (0 Bft) 100,00 %
16.08.2016 05:20 13,7 C 96 % 1016,3 hPa 0,0 l/m 0,0 km/h (0 Bft) S 175 0 min 0,000 mm 0,0 UV-I 0 W/m 13,1 C 13,7 C 0,0 km/h (0 Bft) 95,74 %
16.08.2016 05:22 13,7 C 96 % 1016,3 hPa 0,0 l/m 0,0 km/h (0 Bft) S 175 0 min 0,000 mm 0,0 UV-I 0 W/m 13,1 C 13,7 C 0,0 km/h (0 Bft) 100,00 %
16.08.2016 05:24 13,8 C 96 % 1016,3 hPa 0,0 l/m 0,0 km/h (0 Bft) S 175 0 min 0,000 mm 0,0 UV-I 0 W/m 13,2 C 13,8 C 0,0 km/h (0 Bft) 100,00 %
16.08.2016 05:26 13,8 C 96 % 1016,3 hPa 0,0 l/m 0,0 km/h (0 Bft) S 175 0 min 0,000 mm 0,0 UV-I 0 W/m 13,2 C 13,8 C 0,0 km/h (0 Bft) 97,56 %
16.08.2016 05:28 13,7 C 96 % 1016,3 hPa 0,0 l/m 0,0 km/h (0 Bft) S 175 0 min 0,000 mm 0,0 UV-I 0 W/m 13,1 C 13,7 C 0,0 km/h (0 Bft) 95,83 %
16.08.2016 05:30 13,7 C 96 % 1016,3 hPa 0,0 l/m 0,0 km/h (0 Bft) S 175 0 min 0,000 mm 0,0 UV-I 0 W/m 13,1 C 13,7 C 0,0 km/h (0 Bft) 98,00 %
16.08.2016 05:32 13,6 C 96 % 1016,3 hPa 0,0 l/m 0,0 km/h (0 Bft) S 175 0 min 0,000 mm 0,0 UV-I 0 W/m 13,0 C 13,6 C 0,0 km/h (0 Bft) 95,74 %
16.08.2016 05:34 13,6 C 96 % 1016,3 hPa 0,0 l/m 0,0 km/h (0 Bft) S 175 0 min 0,000 mm 0,0 UV-I 0 W/m 13,0 C 13,6 C 0,0 km/h (0 Bft) 95,74 %
16.08.2016 05:36 13,6 C 96 % 1016,2 hPa 0,0 l/m 0,0 km/h (0 Bft) S 175 0 min 0,000 mm 0,0 UV-I 0 W/m 13,0 C 13,6 C 0,0 km/h (0 Bft) 96,00 %
16.08.2016 05:38 13,6 C 96 % 1016,2 hPa 0,0 l/m 0,0 km/h (0 Bft) S 175 0 min 0,000 mm 0,0 UV-I 0 W/m 13,0 C 13,6 C 0,0 km/h (0 Bft) 93,62 %
16.08.2016 05:40 13,6 C 96 % 1016,2 hPa 0,0 l/m 0,0 km/h (0 Bft) S 175 0 min 0,000 mm 0,0 UV-I 0 W/m 13,0 C 13,6 C 0,0 km/h (0 Bft) 95,12 %
16.08.2016 05:42 13,6 C 96 % 1016,2 hPa 0,0 l/m 0,0 km/h (0 Bft) S 175 0 min 0,000 mm 0,0 UV-I 0 W/m 13,0 C 13,6 C 0,0 km/h (0 Bft) 97,87 %
16.08.2016 05:44 13,6 C 96 % 1016,2 hPa 0,0 l/m 0,0 km/h (0 Bft) S 175 0 min 0,000 mm 0,0 UV-I 0 W/m 13,0 C 13,6 C 0,0 km/h (0 Bft) 97,87 %
16.08.2016 05:46 13,6 C 96 % 1016,2 hPa 0,0 l/m 0,0 km/h (0 Bft) S 175 0 min 0,000 mm 0,0 UV-I 0 W/m 13,0 C 13,6 C 0,0 km/h (0 Bft) 97,87 %
16.08.2016 05:48 13,7 C 96 % 1016,2 hPa 0,0 l/m 0,0 km/h (0 Bft) S 175 0 min 0,000 mm 0,0 UV-I 0 W/m 13,1 C 13,7 C 0,0 km/h (0 Bft) 95,74 %
16.08.2016 05:50 13,7 C 96 % 1016,2 hPa 0,0 l/m 0,0 km/h (0 Bft) S 175 0 min 0,000 mm 0,0 UV-I 0 W/m 13,1 C 13,7 C 0,0 km/h (0 Bft) 97,87 %
16.08.2016 05:52 13,7 C 96 % 1016,2 hPa 0,0 l/m 0,0 km/h (0 Bft) S 175 0 min 0,000 mm 0,0 UV-I 0 W/m 13,1 C 13,7 C 0,0 km/h (0 Bft) 98,00 %
16.08.2016 05:54 13,7 C 96 % 1016,2 hPa 0,0 l/m 0,0 km/h (0 Bft) S 175 0 min 0,000 mm 0,0 UV-I 0 W/m 13,1 C 13,7 C 0,0 km/h (0 Bft) 95,74 %
16.08.2016 05:56 13,7 C 96 % 1016,2 hPa 0,0 l/m 0,0 km/h (0 Bft) S 175 0 min 0,000 mm 0,0 UV-I 0 W/m 13,1 C 13,7 C 0,0 km/h (0 Bft) 95,74 %
16.08.2016 05:58 13,7 C 96 % 1016,2 hPa 0,0 l/m 0,0 km/h (0 Bft) S 175 0 min 0,000 mm 0,0 UV-I 0 W/m 13,1 C 13,7 C 0,0 km/h (0 Bft) 100,00 %
16.08.2016 06:00 13,7 C 96 % 1016,2 hPa 0,0 l/m 0,0 km/h (0 Bft) S 175 0 min 0,000 mm 0,0 UV-I 0 W/m 13,1 C 13,7 C 0,0 km/h (0 Bft) 96,00 %
16.08.2016 06:02 13,7 C 96 % 1016,2 hPa 0,0 l/m 0,0 km/h (0 Bft) S 175 0 min 0,000 mm 0,0 UV-I 1 W/m 13,1 C 13,7 C 0,0 km/h (0 Bft) 100,00 %
16.08.2016 06:04 13,7 C 96 % 1016,2 hPa 0,0 l/m 0,0 km/h (0 Bft) S 175 0 min 0,000 mm 0,0 UV-I 5 W/m 13,1 C 13,7 C 0,0 km/h (0 Bft) 96,88 %
16.08.2016 06:06 13,7 C 96 % 1016,2 hPa 0,0 l/m 0,1 km/h (0 Bft) S 175 0 min 0,000 mm 0,0 UV-I 5 W/m 13,1 C 13,7 C 1,6 km/h (1 Bft) 100,00 %
16.08.2016 06:08 13,7 C 97 % 1016,2 hPa 0,0 l/m 0,0 km/h (0 Bft) S 175 0 min 0,000 mm 0,0 UV-I 7 W/m 13,2 C 13,7 C 0,0 km/h (0 Bft) 96,00 %
16.08.2016 06:10 13,7 C 97 % 1016,2 hPa 0,0 l/m 0,0 km/h (0 Bft) S 175 0 min 0,000 mm 0,0 UV-I 8 W/m 13,2 C 13,7 C 0,0 km/h (0 Bft) 97,87 %
16.08.2016 06:12 13,7 C 97 % 1016,2 hPa 0,0 l/m 0,0 km/h (0 Bft) S 175 0 min 0,000 mm 0,0 UV-I 10 W/m 13,2 C 13,7 C 0,0 km/h (0 Bft) 100,00 %
16.08.2016 06:14 13,7 C 97 % 1016,2 hPa 0,0 l/m 0,0 km/h (0 Bft) S 175 0 min 0,000 mm 0,0 UV-I 12 W/m 13,2 C 13,7 C 1,6 km/h (1 Bft) 100,00 %
16.08.2016 06:16 13,7 C 97 % 1016,2 hPa 0,0 l/m 0,9 km/h (0 Bft) S 175 0 min 0,000 mm 0,0 UV-I 13 W/m 13,2 C 13,7 C 3,2 km/h (1 Bft) 97,87 %
16.08.2016 06:18 13,7 C 97 % 1016,2 hPa 0,0 l/m 1,7 km/h (1 Bft) S 175 0 min 0,000 mm 0,0 UV-I 14 W/m 13,2 C 13,7 C 3,2 km/h (1 Bft) 100,00 %
16.08.2016 06:20 13,6 C 97 % 1016,2 hPa 0,0 l/m 1,6 km/h (1 Bft) S 175 0 min 0,000 mm 0,0 UV-I 17 W/m 13,1 C 13,6 C 3,2 km/h (1 Bft) 100,00 %
16.08.2016 06:22 13,6 C 97 % 1016,3 hPa 0,0 l/m 0,8 km/h (0 Bft) S 175 0 min 0,000 mm 0,0 UV-I 19 W/m 13,1 C 13,6 C 1,6 km/h (1 Bft) 96,00 %
16.08.2016 06:24 13,6 C 97 % 1016,3 hPa 0,0 l/m 0,0 km/h (0 Bft) S 175 0 min 0,000 mm 0,0 UV-I 21 W/m 13,1 C 13,6 C 0,0 km/h (0 Bft) 100,00 %
16.08.2016 06:26 13,6 C 97 % 1016,3 hPa 0,0 l/m 0,0 km/h (0 Bft) S 175 0 min 0,000 mm 0,0 UV-I 23 W/m 13,1 C 13,6 C 0,0 km/h (0 Bft) 100,00 %
16.08.2016 06:28 13,6 C 97 % 1016,3 hPa 0,0 l/m 0,0 km/h (0 Bft) S 175 0 min 0,000 mm 0,0 UV-I 26 W/m 13,1 C 13,6 C 0,0 km/h (0 Bft) 94,64 %
16.08.2016 06:30 13,7 C 97 % 1016,3 hPa 0,0 l/m 0,0 km/h (0 Bft) S 175 0 min 0,000 mm 0,0 UV-I 29 W/m 13,2 C 13,7 C 0,0 km/h (0 Bft) 97,87 %
16.08.2016 06:32 13,6 C 97 % 1016,3 hPa 0,0 l/m 0,0 km/h (0 Bft) S 175 0 min 0,000 mm 0,0 UV-I 32 W/m 13,1 C 13,6 C 0,0 km/h (0 Bft) 97,87 %
16.08.2016 06:34 13,7 C 97 % 1016,2 hPa 0,0 l/m 0,0 km/h (0 Bft) S 175 0 min 0,000 mm 0,0 UV-I 32 W/m 13,2 C 13,7 C 1,6 km/h (1 Bft) 96,00 %
16.08.2016 06:36 13,8 C 97 % 1016,3 hPa 0,0 l/m 1,0 km/h (0 Bft) S 175 0 min 0,000 mm 0,0 UV-I 33 W/m 13,3 C 13,8 C 1,6 km/h (1 Bft) 97,87 %
16.08.2016 06:38 13,8 C 97 % 1016,3 hPa 0,0 l/m 1,0 km/h (0 Bft) S 175 0 min 0,000 mm 0,0 UV-I 35 W/m 13,3 C 13,8 C 1,6 km/h (1 Bft) 100,00 %
16.08.2016 06:40 13,8 C 97 % 1016,3 hPa 0,0 l/m 0,2 km/h (0 Bft) S 175 0 min 0,000 mm 0,0 UV-I 35 W/m 13,3 C 13,8 C 1,6 km/h (1 Bft) 100,00 %
16.08.2016 06:42 13,8 C 97 % 1016,3 hPa 0,0 l/m 0,6 km/h (0 Bft) S 175 0 min 0,000 mm 0,0 UV-I 34 W/m 13,3 C 13,8 C 1,6 km/h (1 Bft) 100,00 %
16.08.2016 06:44 13,9 C 98 % 1016,3 hPa 0,0 l/m 0,8 km/h (0 Bft) S 175 0 min 0,000 mm 0,0 UV-I 33 W/m 13,6 C 13,9 C 1,6 km/h (1 Bft) 97,73 %
16.08.2016 06:46 13,9 C 98 % 1016,3 hPa 0,0 l/m 0,0 km/h (0 Bft) S 175 0 min 0,000 mm 0,0 UV-I 35 W/m 13,6 C 13,9 C 0,0 km/h (0 Bft) 100,00 %
16.08.2016 06:48 14,2 C 98 % 1016,3 hPa 0,0 l/m 0,0 km/h (0 Bft) S 175 0 min 0,000 mm 0,0 UV-I 38 W/m 13,9 C 14,2 C 0,0 km/h (0 Bft) 97,92 %
16.08.2016 06:50 14,3 C 98 % 1016,2 hPa 0,0 l/m 0,0 km/h (0 Bft) S 175 0 min 0,000 mm 0,0 UV-I 40 W/m 14,0 C 14,3 C 0,0 km/h (0 Bft) 100,00 %
16.08.2016 06:52 14,3 C 98 % 1016,3 hPa 0,0 l/m 0,0 km/h (0 Bft) S 175 0 min 0,000 mm 0,0 UV-I 40 W/m 14,0 C 14,3 C 0,0 km/h (0 Bft) 98,00 %
16.08.2016 06:54 14,4 C 98 % 1016,3 hPa 0,0 l/m 0,0 km/h (0 Bft) S 175 0 min 0,000 mm 0,0 UV-I 39 W/m 14,1 C 14,4 C 0,0 km/h (0 Bft) 100,00 %
16.08.2016 06:56 14,5 C 98 % 1016,2 hPa 0,0 l/m 0,0 km/h (0 Bft) S 175 0 min 0,000 mm 0,0 UV-I 39 W/m 14,2 C 14,5 C 0,0 km/h (0 Bft) 100,00 %
16.08.2016 06:58 14,6 C 98 % 1016,2 hPa 0,0 l/m 0,0 km/h (0 Bft) S 175 0 min 0,000 mm 0,0 UV-I 40 W/m 14,3 C 14,6 C 0,0 km/h (0 Bft) 100,00 %
16.08.2016 07:00 14,6 C 98 % 1016,3 hPa 0,0 l/m 0,0 km/h (0 Bft) S 175 0 min 0,000 mm 0,0 UV-I 45 W/m 14,3 C 14,6 C 0,0 km/h (0 Bft) 100,00 %
16.08.2016 07:02 14,6 C 98 % 1016,2 hPa 0,0 l/m 1,3 km/h (1 Bft) S 175 0 min 0,025 mm 0,0 UV-I 45 W/m 14,3 C 14,6 C 3,2 km/h (1 Bft) 100,00 %
16.08.2016 07:04 14,2 C 97 % 1016,3 hPa 0,0 l/m 2,3 km/h (1 Bft) S 175 0 min 0,000 mm 0,0 UV-I 45 W/m 13,7 C 14,2 C 3,2 km/h (1 Bft) 100,00 %
16.08.2016 07:06 14,1 C 97 % 1016,3 hPa 0,0 l/m 1,0 km/h (0 Bft) S 175 0 min 0,000 mm 0,0 UV-I 49 W/m 13,6 C 14,1 C 1,6 km/h (1 Bft) 100,00 %
16.08.2016 07:08 14,1 C 97 % 1016,3 hPa 0,0 l/m 0,0 km/h (0 Bft) S 175 0 min 0,000 mm 0,0 UV-I 53 W/m 13,6 C 14,1 C 0,0 km/h (0 Bft) 97,56 %
16.08.2016 07:10 14,2 C 97 % 1016,3 hPa 0,0 l/m 0,0 km/h (0 Bft) S 175 0 min 0,000 mm 0,0 UV-I 53 W/m 13,7 C 14,2 C 0,0 km/h (0 Bft) 100,00 %
16.08.2016 07:12 14,3 C 98 % 1016,3 hPa 0,0 l/m 0,0 km/h (0 Bft) S 175 0 min 0,000 mm 0,0 UV-I 53 W/m 14,0 C 14,3 C 0,0 km/h (0 Bft) 100,00 %
16.08.2016 07:14 14,4 C 98 % 1016,3 hPa 0,0 l/m 0,0 km/h (0 Bft) S 175 0 min 0,000 mm 0,0 UV-I 52 W/m 14,1 C 14,4 C 0,0 km/h (0 Bft) 100,00 %
16.08.2016 07:16 14,4 C 98 % 1016,2 hPa 0,0 l/m 0,0 km/h (0 Bft) S 175 0 min 0,000 mm 0,0 UV-I 53 W/m 14,1 C 14,4 C 0,0 km/h (0 Bft) 100,00 %
16.08.2016 07:18 14,5 C 98 % 1016,3 hPa 0,0 l/m 0,0 km/h (0 Bft) S 175 0 min 0,000 mm 0,0 UV-I 61 W/m 14,2 C 14,5 C 1,6 km/h (1 Bft) 100,00 %
16.08.2016 07:20 14,6 C 98 % 1016,3 hPa 0,0 l/m 0,0 km/h (0 Bft) S 175 0 min 0,000 mm 0,0 UV-I 67 W/m 14,3 C 14,6 C 0,0 km/h (0 Bft) 100,00 %
16.08.2016 07:22 14,7 C 98 % 1016,2 hPa 0,0 l/m 0,7 km/h (0 Bft) S 175 0 min 0,000 mm 0,0 UV-I 69 W/m 14,4 C 14,7 C 3,2 km/h (1 Bft) 100,00 %
16.08.2016 07:24 14,8 C 98 % 1016,2 hPa 0,0 l/m 1,3 km/h (1 Bft) S 175 0 min 0,000 mm 0,0 UV-I 73 W/m 14,5 C 14,8 C 3,2 km/h (1 Bft) 98,00 %
16.08.2016 07:26 14,9 C 98 % 1016,2 hPa 0,0 l/m 1,4 km/h (1 Bft) S 175 0 min 0,000 mm 0,0 UV-I 75 W/m 14,6 C 14,9 C 3,2 km/h (1 Bft) 98,00 %
16.08.2016 07:28 15,1 C 98 % 1016,2 hPa 0,0 l/m 2,0 km/h (1 Bft) S-SO 167 0 min 0,000 mm 0,0 UV-I 74 W/m 14,8 C 15,1 C 6,4 km/h (2 Bft) 97,44 %
16.08.2016 07:30 15,1 C 98 % 1016,2 hPa 0,0 l/m 0,7 km/h (0 Bft) S-SO 167 0 min 0,000 mm 0,0 UV-I 76 W/m 14,8 C 15,1 C 1,6 km/h (1 Bft) 95,74 %
16.08.2016 07:32 15,2 C 98 % 1016,2 hPa 0,0 l/m 0,6 km/h (0 Bft) S-SO 167 0 min 0,000 mm 0,0 UV-I 75 W/m 14,9 C 15,2 C 4,8 km/h (1 Bft) 97,87 %
16.08.2016 07:34 15,3 C 98 % 1016,2 hPa 0,0 l/m 0,7 km/h (0 Bft) S-SO 167 0 min 0,000 mm 0,0 UV-I 72 W/m 15,0 C 15,3 C 4,8 km/h (1 Bft) 98,00 %
16.08.2016 07:36 15,3 C 98 % 1016,2 hPa 0,0 l/m 0,9 km/h (0 Bft) S-SO 167 0 min 0,000 mm 0,0 UV-I 76 W/m 15,0 C 15,3 C 1,6 km/h (1 Bft) 97,87 %
16.08.2016 07:38 15,4 C 98 % 1016,1 hPa 0,0 l/m 0,7 km/h (0 Bft) S-SO 167 0 min 0,000 mm 0,0 UV-I 81 W/m 15,1 C 15,4 C 1,6 km/h (1 Bft) 98,00 %
16.08.2016 07:40 15,5 C 98 % 1016,2 hPa 0,0 l/m 0,0 km/h (0 Bft) S-SO 167 0 min 0,000 mm 0,0 UV-I 89 W/m 15,2 C 15,5 C 0,0 km/h (0 Bft) 97,56 %
16.08.2016 07:42 15,5 C 97 % 1016,2 hPa 0,0 l/m 0,2 km/h (0 Bft) S-SO 167 0 min 0,000 mm 0,0 UV-I 89 W/m 15,0 C 15,5 C 1,6 km/h (1 Bft) 96,00 %
16.08.2016 07:44 15,6 C 97 % 1016,2 hPa 0,0 l/m 1,9 km/h (1 Bft) S-SO 167 0 min 0,000 mm 0,0 UV-I 92 W/m 15,1 C 15,6 C 6,4 km/h (2 Bft) 97,87 %
16.08.2016 07:46 15,6 C 97 % 1016,2 hPa 0,0 l/m 1,6 km/h (1 Bft) S-SO 167 0 min 0,000 mm 0,0 UV-I 100 W/m 15,1 C 15,6 C 4,8 km/h (1 Bft) 97,87 %
16.08.2016 07:48 15,6 C 97 % 1016,2 hPa 0,0 l/m 0,4 km/h (0 Bft) S-SO 167 0 min 0,000 mm 0,0 UV-I 100 W/m 15,1 C 15,6 C 1,6 km/h (1 Bft) 94,74 %
16.08.2016 07:50 15,7 C 97 % 1016,2 hPa 0,0 l/m 3,0 km/h (1 Bft) S-SO 167 0 min 0,000 mm 0,0 UV-I 105 W/m 15,2 C 15,7 C 4,8 km/h (1 Bft) 98,00 %
16.08.2016 07:52 15,8 C 97 % 1016,2 hPa 0,0 l/m 3,7 km/h (1 Bft) S-SO 167 0 min 0,000 mm 0,0 UV-I 120 W/m 15,3 C 15,8 C 6,4 km/h (2 Bft) 94,74 %
16.08.2016 07:54 15,8 C 96 % 1016,2 hPa 0,0 l/m 3,2 km/h (1 Bft) S-SO 158 0 min 0,000 mm 0,0 UV-I 123 W/m 15,2 C 15,8 C 6,4 km/h (2 Bft) 98,11 %
16.08.2016 07:56 15,8 C 96 % 1016,2 hPa 0,0 l/m 0,9 km/h (0 Bft) S-SO 158 0 min 0,000 mm 0,0 UV-I 120 W/m 15,2 C 15,8 C 3,2 km/h (1 Bft) 98,00 %
16.08.2016 07:58 15,9 C 96 % 1016,2 hPa 0,0 l/m 0,3 km/h (0 Bft) S-SO 158 0 min 0,000 mm 0,0 UV-I 118 W/m 15,3 C 15,9 C 1,6 km/h (1 Bft) 98,00 %
16.08.2016 08:00 15,9 C 96 % 1016,2 hPa 0,0 l/m 2,3 km/h (1 Bft) S-SO 158 0 min 0,051 mm 0,0 UV-I 125 W/m 15,3 C 15,9 C 3,2 km/h (1 Bft) 100,00 %
16.08.2016 08:02 16,0 C 95 % 1016,2 hPa 0,0 l/m 0,7 km/h (0 Bft) S-SO 158 0 min 0,000 mm 0,0 UV-I 130 W/m 15,2 C 16,0 C 1,6 km/h (1 Bft) 97,87 %
16.08.2016 08:04 16,1 C 95 % 1016,2 hPa 0,0 l/m 1,2 km/h (1 Bft) S-SO 158 0 min 0,000 mm 0,0 UV-I 134 W/m 15,3 C 16,1 C 3,2 km/h (1 Bft) 97,44 %
16.08.2016 08:06 16,2 C 96 % 1016,1 hPa 0,0 l/m 1,1 km/h (1 Bft) S-SO 158 0 min 0,000 mm 0,0 UV-I 128 W/m 15,6 C 16,2 C 4,8 km/h (1 Bft) 100,00 %
16.08.2016 08:08 16,2 C 95 % 1016,1 hPa 0,0 l/m 2,6 km/h (1 Bft) S-SO 158 0 min 0,000 mm 0,4 UV-I 142 W/m 15,4 C 16,2 C 4,8 km/h (1 Bft) 97,56 %
16.08.2016 08:10 16,2 C 95 % 1016,1 hPa 0,0 l/m 0,7 km/h (0 Bft) S-SO 158 0 min 0,000 mm 0,5 UV-I 188 W/m 15,4 C 16,2 C 3,2 km/h (1 Bft) 95,74 %
16.08.2016 08:12 16,3 C 96 % 1016,1 hPa 0,0 l/m 2,1 km/h (1 Bft) S-SO 158 0 min 0,000 mm 0,5 UV-I 191 W/m 15,7 C 16,3 C 4,8 km/h (1 Bft) 100,00 %
16.08.2016 08:14 16,3 C 95 % 1016,1 hPa 0,0 l/m 2,3 km/h (1 Bft) S-SO 150 0 min 0,000 mm 0,5 UV-I 189 W/m 15,5 C 16,3 C 4,8 km/h (1 Bft) 100,00 %
16.08.2016 08:16 16,2 C 95 % 1016,1 hPa 0,0 l/m 4,3 km/h (1 Bft) SO 146 0 min 0,000 mm 0,5 UV-I 173 W/m 15,4 C 16,2 C 6,4 km/h (2 Bft) 97,87 %
16.08.2016 08:18 16,2 C 95 % 1016,1 hPa 0,0 l/m 3,7 km/h (1 Bft) O-SO 117 0 min 0,000 mm 0,5 UV-I 143 W/m 15,4 C 16,2 C 6,4 km/h (2 Bft) 100,00 %
16.08.2016 08:20 16,2 C 95 % 1016,1 hPa 0,0 l/m 3,7 km/h (1 Bft) O 83 0 min 0,000 mm 0,5 UV-I 131 W/m 15,4 C 16,2 C 4,8 km/h (1 Bft) 100,00 %
16.08.2016 08:22 16,2 C 95 % 1016,2 hPa 0,0 l/m 3,5 km/h (1 Bft) O 88 0 min 0,000 mm 0,5 UV-I 145 W/m 15,4 C 16,2 C 4,8 km/h (1 Bft) 100,00 %
16.08.2016 08:24 16,2 C 96 % 1016,2 hPa 0,0 l/m 1,0 km/h (0 Bft) O 88 0 min 0,000 mm 0,5 UV-I 149 W/m 15,6 C 16,2 C 3,2 km/h (1 Bft) 100,00 %
16.08.2016 08:26 16,3 C 96 % 1016,2 hPa 0,0 l/m 1,5 km/h (1 Bft) O 88 0 min 0,000 mm 0,5 UV-I 135 W/m 15,7 C 16,3 C 4,8 km/h (1 Bft) 100,00 %
16.08.2016 08:28 16,3 C 96 % 1016,2 hPa 0,0 l/m 1,4 km/h (1 Bft) O 88 0 min 0,000 mm 0,4 UV-I 124 W/m 15,7 C 16,3 C 3,2 km/h (1 Bft) 100,00 %
16.08.2016 08:30 16,3 C 95 % 1016,2 hPa 0,0 l/m 2,0 km/h (1 Bft) O 88 0 min 0,000 mm 0,0 UV-I 126 W/m 15,5 C 16,3 C 4,8 km/h (1 Bft) 100,00 %
16.08.2016 08:32 16,3 C 95 % 1016,2 hPa 0,0 l/m 2,8 km/h (1 Bft) O 84 0 min 0,000 mm 0,0 UV-I 127 W/m 15,5 C 16,3 C 4,8 km/h (1 Bft) 98,00 %
16.08.2016 08:34 16,3 C 95 % 1016,2 hPa 0,0 l/m 2,8 km/h (1 Bft) O 82 0 min 0,000 mm 0,1 UV-I 121 W/m 15,5 C 16,3 C 6,4 km/h (2 Bft) 98,00 %
16.08.2016 08:36 16,4 C 96 % 1016,2 hPa 0,0 l/m 4,6 km/h (1 Bft) O-NO 60 0 min 0,000 mm 0,5 UV-I 126 W/m 15,8 C 16,4 C 6,4 km/h (2 Bft) 100,00 %
16.08.2016 08:38 16,4 C 96 % 1016,2 hPa 0,0 l/m 5,7 km/h (1 Bft) O-NO 71 0 min 0,000 mm 0,5 UV-I 132 W/m 15,8 C 16,4 C 8,0 km/h (2 Bft) 100,00 %
16.08.2016 08:40 16,4 C 95 % 1016,2 hPa 0,0 l/m 4,7 km/h (1 Bft) O-NO 77 0 min 0,000 mm 0,5 UV-I 134 W/m 15,6 C 16,4 C 6,4 km/h (2 Bft) 100,00 %
16.08.2016 08:42 16,5 C 95 % 1016,2 hPa 0,0 l/m 5,1 km/h (1 Bft) O 81 0 min 0,000 mm 0,6 UV-I 145 W/m 15,7 C 16,5 C 8,0 km/h (2 Bft) 98,00 %
16.08.2016 08:44 16,6 C 95 % 1016,2 hPa 0,0 l/m 3,9 km/h (1 Bft) O-SO 104 0 min 0,000 mm 0,6 UV-I 151 W/m 15,8 C 16,6 C 6,4 km/h (2 Bft) 100,00 %
16.08.2016 08:46 16,7 C 95 % 1016,1 hPa 0,0 l/m 3,4 km/h (1 Bft) O-SO 113 0 min 0,000 mm 0,7 UV-I 173 W/m 15,9 C 16,7 C 4,8 km/h (1 Bft) 95,74 %
16.08.2016 08:48 16,7 C 95 % 1016,1 hPa 0,0 l/m 3,2 km/h (1 Bft) NO 44 0 min 0,000 mm 0,8 UV-I 161 W/m 15,9 C 16,7 C 4,8 km/h (1 Bft) 100,00 %
16.08.2016 08:50 16,8 C 95 % 1016,1 hPa 0,0 l/m 3,3 km/h (1 Bft) O-NO 62 0 min 0,000 mm 0,8 UV-I 177 W/m 16,0 C 16,8 C 4,8 km/h (1 Bft) 100,00 %
16.08.2016 08:52 16,9 C 95 % 1016,1 hPa 0,0 l/m 3,8 km/h (1 Bft) O-NO 62 0 min 0,000 mm 0,9 UV-I 212 W/m 16,1 C 16,9 C 6,4 km/h (2 Bft) 100,00 %
16.08.2016 08:54 17,1 C 95 % 1016,0 hPa 0,0 l/m 2,4 km/h (1 Bft) O-NO 62 0 min 0,000 mm 0,9 UV-I 216 W/m 16,3 C 17,1 C 3,2 km/h (1 Bft) 98,11 %
16.08.2016 08:56 17,1 C 94 % 1016,0 hPa 0,0 l/m 2,1 km/h (1 Bft) O-NO 62 0 min 0,000 mm 0,9 UV-I 197 W/m 16,1 C 17,1 C 4,8 km/h (1 Bft) 100,00 %
16.08.2016 08:58 17,2 C 94 % 1016,1 hPa 0,0 l/m 3,7 km/h (1 Bft) O-NO 62 0 min 0,000 mm 0,9 UV-I 216 W/m 16,2 C 17,2 C 6,4 km/h (2 Bft) 100,00 %
16.08.2016 09:00 17,3 C 94 % 1016,0 hPa 0,0 l/m 2,6 km/h (1 Bft) O-SO 115 0 min 0,076 mm 1,1 UV-I 243 W/m 16,3 C 17,3 C 6,4 km/h (2 Bft) 100,00 %
16.08.2016 09:02 17,4 C 94 % 1016,1 hPa 0,0 l/m 3,4 km/h (1 Bft) O-SO 110 0 min 0,000 mm 1,0 UV-I 232 W/m 16,4 C 17,4 C 6,4 km/h (2 Bft) 100,00 %
16.08.2016 09:04 17,4 C 93 % 1016,1 hPa 0,0 l/m 2,9 km/h (1 Bft) O 84 0 min 0,000 mm 1,1 UV-I 240 W/m 16,3 C 17,4 C 6,4 km/h (2 Bft) 100,00 %
16.08.2016 09:06 17,4 C 92 % 1016,1 hPa 0,0 l/m 1,9 km/h (1 Bft) O-NO 76 2 min 0,000 mm 1,2 UV-I 341 W/m 16,1 C 17,4 C 4,8 km/h (1 Bft) 97,56 %
16.08.2016 09:08 17,5 C 93 % 1016,1 hPa 0,0 l/m 5,3 km/h (1 Bft) O-NO 59 2 min 0,000 mm 1,2 UV-I 322 W/m 16,4 C 17,5 C 8,0 km/h (2 Bft) 100,00 %
16.08.2016 09:10 17,6 C 92 % 1016,1 hPa 0,0 l/m 5,2 km/h (1 Bft) NO 43 0 min 0,000 mm 1,2 UV-I 262 W/m 16,3 C 17,6 C 6,4 km/h (2 Bft) 98,21 %
16.08.2016 09:12 17,7 C 92 % 1016,1 hPa 0,0 l/m 4,9 km/h (1 Bft) O 92 2 min 0,000 mm 1,3 UV-I 281 W/m 16,4 C 17,7 C 8,0 km/h (2 Bft) 100,00 %
16.08.2016 09:14 17,6 C 91 % 1016,2 hPa 0,0 l/m 5,0 km/h (1 Bft) NO 36 0 min 0,000 mm 1,2 UV-I 191 W/m 16,1 C 17,6 C 8,0 km/h (2 Bft) 98,00 %
16.08.2016 09:16 17,5 C 91 % 1016,2 hPa 0,0 l/m 5,3 km/h (1 Bft) O-NO 74 0 min 0,000 mm 1,3 UV-I 221 W/m 16,0 C 17,5 C 6,4 km/h (2 Bft) 100,00 %
16.08.2016 09:18 17,5 C 91 % 1016,2 hPa 0,0 l/m 5,4 km/h (1 Bft) O-NO 74 0 min 0,000 mm 1,3 UV-I 239 W/m 16,0 C 17,5 C 8,0 km/h (2 Bft) 97,87 %
16.08.2016 09:20 17,5 C 91 % 1016,1 hPa 0,0 l/m 5,6 km/h (1 Bft) O-NO 62 0 min 0,000 mm 1,3 UV-I 246 W/m 16,0 C 17,5 C 8,0 km/h (2 Bft) 100,00 %
16.08.2016 09:22 17,6 C 92 % 1016,1 hPa 0,0 l/m 5,7 km/h (1 Bft) O-NO 74 2 min 0,000 mm 1,4 UV-I 295 W/m 16,3 C 17,6 C 8,0 km/h (2 Bft) 97,30 %
16.08.2016 09:24 17,6 C 91 % 1016,2 hPa 0,0 l/m 5,2 km/h (1 Bft) O 80 0 min 0,000 mm 1,3 UV-I 255 W/m 16,1 C 17,6 C 8,0 km/h (2 Bft) 98,11 %
16.08.2016 09:26 17,6 C 91 % 1016,1 hPa 0,0 l/m 6,9 km/h (2 Bft) O-NO 73 0 min 0,000 mm 1,3 UV-I 252 W/m 16,1 C 17,4 C 11,3 km/h (2 Bft) 95,74 %
16.08.2016 09:28 17,6 C 91 % 1016,2 hPa 0,0 l/m 7,7 km/h (2 Bft) O-NO 68 0 min 0,000 mm 1,3 UV-I 229 W/m 16,1 C 17,0 C 11,3 km/h (2 Bft) 98,00 %
16.08.2016 09:30 17,6 C 90 % 1016,2 hPa 0,0 l/m 4,0 km/h (1 Bft) O-NO 74 0 min 0,000 mm 1,2 UV-I 193 W/m 15,9 C 17,6 C 8,0 km/h (2 Bft) 98,00 %
16.08.2016 09:32 17,4 C 91 % 1016,1 hPa 0,0 l/m 4,1 km/h (1 Bft) O-NO 74 0 min 0,000 mm 1,4 UV-I 218 W/m 15,9 C 17,4 C 6,4 km/h (2 Bft) 97,56 %
16.08.2016 09:34 17,6 C 92 % 1016,1 hPa 0,0 l/m 4,2 km/h (1 Bft) NO 56 0 min 0,000 mm 1,5 UV-I 287 W/m 16,3 C 17,6 C 6,4 km/h (2 Bft) 97,87 %
16.08.2016 09:36 17,7 C 92 % 1016,1 hPa 0,0 l/m 5,8 km/h (2 Bft) O-NO 71 0 min 0,000 mm 1,4 UV-I 226 W/m 16,4 C 17,7 C 8,0 km/h (2 Bft) 98,00 %
16.08.2016 09:38 17,7 C 91 % 1016,0 hPa 0,0 l/m 3,6 km/h (1 Bft) O 79 0 min 0,000 mm 1,4 UV-I 259 W/m 16,2 C 17,7 C 6,4 km/h (2 Bft) 97,73 %
16.08.2016 09:40 17,7 C 92 % 1016,0 hPa 0,0 l/m 4,2 km/h (1 Bft) SO 137 0 min 0,000 mm 1,4 UV-I 282 W/m 16,4 C 17,7 C 6,4 km/h (2 Bft) 96,00 %
16.08.2016 09:42 17,8 C 91 % 1016,0 hPa 0,0 l/m 3,0 km/h (1 Bft) O-SO 111 0 min 0,000 mm 1,6 UV-I 294 W/m 16,3 C 17,8 C 6,4 km/h (2 Bft) 100,00 %
16.08.2016 09:44 17,9 C 92 % 1016,0 hPa 0,0 l/m 3,0 km/h (1 Bft) O-SO 114 2 min 0,000 mm 1,7 UV-I 338 W/m 16,6 C 17,9 C 4,8 km/h (1 Bft) 96,00 %
16.08.2016 09:46 18,1 C 92 % 1016,0 hPa 0,0 l/m 0,7 km/h (0 Bft) O-SO 114 2 min 0,000 mm 1,9 UV-I 359 W/m 16,8 C 18,1 C 1,6 km/h (1 Bft) 95,74 %
16.08.2016 09:48 18,2 C 90 % 1016,0 hPa 0,0 l/m 2,5 km/h (1 Bft) O-SO 102 2 min 0,000 mm 2,0 UV-I 448 W/m 16,5 C 18,2 C 9,7 km/h (2 Bft) 97,87 %
16.08.2016 09:50 18,3 C 91 % 1016,0 hPa 0,0 l/m 6,3 km/h (2 Bft) O-SO 116 2 min 0,000 mm 2,1 UV-I 510 W/m 16,8 C 18,3 C 9,7 km/h (2 Bft) 97,73 %
16.08.2016 09:52 18,3 C 89 % 1015,9 hPa 0,0 l/m 10,9 km/h (2 Bft) SO 124 2 min 0,000 mm 1,9 UV-I 383 W/m 16,5 C 16,4 C 17,7 km/h (3 Bft) 98,11 %
16.08.2016 09:54 18,1 C 89 % 1015,9 hPa 0,0 l/m 8,4 km/h (2 Bft) O 94 0 min 0,000 mm 1,8 UV-I 246 W/m 16,3 C 17,2 C 12,9 km/h (3 Bft) 100,00 %
16.08.2016 09:56 17,8 C 91 % 1015,9 hPa 0,0 l/m 4,0 km/h (1 Bft) S-SO 161 0 min 0,000 mm 1,9 UV-I 295 W/m 16,3 C 17,8 C 6,4 km/h (2 Bft) 97,37 %
16.08.2016 09:58 17,8 C 91 % 1015,9 hPa 0,0 l/m 2,3 km/h (1 Bft) S-SO 158 0 min 0,000 mm 2,0 UV-I 318 W/m 16,3 C 17,8 C 8,0 km/h (2 Bft) 100,00 %
16.08.2016 10:00 17,9 C 91 % 1015,9 hPa 0,0 l/m 4,8 km/h (1 Bft) S 185 0 min 0,153 mm 1,9 UV-I 297 W/m 16,4 C 17,9 C 8,0 km/h (2 Bft) 96,00 %
16.08.2016 10:02 17,9 C 92 % 1016,0 hPa 0,0 l/m 4,6 km/h (1 Bft) SO 135 0 min 0,000 mm 2,0 UV-I 330 W/m 16,6 C 17,9 C 8,0 km/h (2 Bft) 100,00 %
16.08.2016 10:04 18,0 C 91 % 1016,0 hPa 0,0 l/m 4,0 km/h (1 Bft) S-SO 159 0 min 0,000 mm 1,9 UV-I 278 W/m 16,5 C 18,0 C 8,0 km/h (2 Bft) 98,21 %
16.08.2016 10:06 18,2 C 92 % 1016,0 hPa 0,0 l/m 1,4 km/h (1 Bft) S-SO 159 0 min 0,000 mm 2,0 UV-I 341 W/m 16,9 C 18,2 C 3,2 km/h (1 Bft) 100,00 %
16.08.2016 10:08 18,2 C 91 % 1016,0 hPa 0,0 l/m 2,0 km/h (1 Bft) S-SW 193 2 min 0,000 mm 2,1 UV-I 365 W/m 16,7 C 18,2 C 4,8 km/h (1 Bft) 98,00 %
16.08.2016 10:10 18,4 C 92 % 1016,0 hPa 0,0 l/m 2,1 km/h (1 Bft) S-SW 195 0 min 0,000 mm 2,1 UV-I 334 W/m 17,1 C 18,4 C 4,8 km/h (1 Bft) 100,00 %
16.08.2016 10:12 18,6 C 90 % 1016,0 hPa 0,0 l/m 3,8 km/h (1 Bft) S 179 2 min 0,000 mm 2,3 UV-I 406 W/m 16,9 C 18,6 C 8,0 km/h (2 Bft) 100,00 %
16.08.2016 10:14 18,6 C 89 % 1016,0 hPa 0,0 l/m 6,0 km/h (2 Bft) SO 141 2 min 0,000 mm 2,7 UV-I 429 W/m 16,7 C 18,6 C 9,7 km/h (2 Bft) 100,00 %
16.08.2016 10:16 18,8 C 89 % 1016,0 hPa 0,0 l/m 5,9 km/h (2 Bft) SO 144 2 min 0,000 mm 3,0 UV-I 712 W/m 16,9 C 18,8 C 9,7 km/h (2 Bft) 100,00 %
16.08.2016 10:18 18,9 C 88 % 1016,0 hPa 0,0 l/m 5,3 km/h (1 Bft) SO 139 2 min 0,000 mm 2,8 UV-I 699 W/m 16,9 C 18,9 C 11,3 km/h (2 Bft) 100,00 %
16.08.2016 10:20 18,9 C 88 % 1016,0 hPa 0,0 l/m 3,0 km/h (1 Bft) O-SO 118 2 min 0,000 mm 2,3 UV-I 465 W/m 16,9 C 18,9 C 4,8 km/h (1 Bft) 100,00 %
16.08.2016 10:22 18,9 C 87 % 1016,0 hPa 0,0 l/m 3,9 km/h (1 Bft) O-SO 115 0 min 0,000 mm 2,5 UV-I 225 W/m 16,7 C 18,9 C 6,4 km/h (2 Bft) 100,00 %
16.08.2016 10:24 18,7 C 87 % 1016,0 hPa 0,0 l/m 2,5 km/h (1 Bft) S-SO 158 0 min 0,000 mm 2,5 UV-I 252 W/m 16,5 C 18,7 C 6,4 km/h (2 Bft) 100,00 %
16.08.2016 10:26 18,6 C 89 % 1016,0 hPa 0,0 l/m 2,4 km/h (1 Bft) S 171 0 min 0,000 mm 2,4 UV-I 334 W/m 16,7 C 18,6 C 6,4 km/h (2 Bft) 100,00 %
16.08.2016 10:28 18,7 C 89 % 1015,9 hPa 0,0 l/m 2,5 km/h (1 Bft) S-SO 153 0 min 0,000 mm 2,2 UV-I 316 W/m 16,8 C 18,7 C 6,4 km/h (2 Bft) 100,00 %
16.08.2016 10:30 18,7 C 89 % 1015,9 hPa 0,0 l/m 1,8 km/h (1 Bft) S-SO 151 0 min 0,000 mm 2,2 UV-I 209 W/m 16,8 C 18,7 C 3,2 km/h (1 Bft) 100,00 %
16.08.2016 10:32 18,7 C 89 % 1015,9 hPa 0,0 l/m 1,3 km/h (1 Bft) S-SO 151 0 min 0,000 mm 2,3 UV-I 207 W/m 16,8 C 18,7 C 3,2 km/h (1 Bft) 97,37 %
16.08.2016 10:34 18,6 C 88 % 1015,9 hPa 0,0 l/m 0,7 km/h (0 Bft) S-SO 152 0 min 0,000 mm 2,3 UV-I 190 W/m 16,6 C 18,6 C 3,2 km/h (1 Bft) 100,00 %
16.08.2016 10:36 18,6 C 89 % 1015,9 hPa 0,0 l/m 0,8 km/h (0 Bft) S-SO 168 0 min 0,000 mm 2,4 UV-I 217 W/m 16,7 C 18,6 C 3,2 km/h (1 Bft) 100,00 %
16.08.2016 10:38 18,6 C 89 % 1015,9 hPa 0,0 l/m 1,1 km/h (1 Bft) S-SO 168 0 min 0,000 mm 2,5 UV-I 265 W/m 16,7 C 18,6 C 3,2 km/h (1 Bft) 100,00 %
16.08.2016 10:40 18,7 C 88 % 1015,9 hPa 0,0 l/m 1,4 km/h (1 Bft) S-SO 168 0 min 0,000 mm 2,4 UV-I 234 W/m 16,7 C 18,7 C 3,2 km/h (1 Bft) 100,00 %
16.08.2016 10:42 18,8 C 88 % 1015,9 hPa 0,0 l/m 1,2 km/h (1 Bft) S-SO 167 0 min 0,000 mm 2,8 UV-I 229 W/m 16,8 C 18,8 C 4,8 km/h (1 Bft) 100,00 %
16.08.2016 10:44 19,1 C 87 % 1015,9 hPa 0,0 l/m 1,4 km/h (1 Bft) S-SO 167 2 min 0,000 mm 3,2 UV-I 385 W/m 16,9 C 19,1 C 4,8 km/h (1 Bft) 100,00 %
16.08.2016 10:46 19,4 C 86 % 1015,8 hPa 0,0 l/m 2,5 km/h (1 Bft) SO 136 2 min 0,000 mm 3,5 UV-I 718 W/m 17,0 C 19,4 C 6,4 km/h (2 Bft) 100,00 %
16.08.2016 10:48 19,7 C 86 % 1015,8 hPa 0,0 l/m 5,6 km/h (1 Bft) O 91 2 min 0,000 mm 3,6 UV-I 707 W/m 17,3 C 19,7 C 11,3 km/h (2 Bft) 98,00 %
16.08.2016 10:50 19,9 C 83 % 1015,8 hPa 0,0 l/m 4,8 km/h (1 Bft) NO 56 2 min 0,000 mm 3,7 UV-I 731 W/m 16,9 C 19,9 C 6,4 km/h (2 Bft) 100,00 %
16.08.2016 10:52 19,9 C 82 % 1015,7 hPa 0,0 l/m 1,8 km/h (1 Bft) NO 44 2 min 0,000 mm 3,7 UV-I 723 W/m 16,7 C 19,9 C 6,4 km/h (2 Bft) 100,00 %
16.08.2016 10:54 20,1 C 84 % 1015,7 hPa 0,0 l/m 4,1 km/h (1 Bft) NO 45 2 min 0,000 mm 3,7 UV-I 702 W/m 17,3 C 20,1 C 6,4 km/h (2 Bft) 100,00 %
16.08.2016 10:56 20,4 C 83 % 1015,7 hPa 0,0 l/m 1,2 km/h (1 Bft) N-NW 339 2 min 0,000 mm 3,7 UV-I 700 W/m 17,4 C 20,4 C 1,6 km/h (1 Bft) 100,00 %
16.08.2016 10:58 20,7 C 82 % 1015,7 hPa 0,0 l/m 2,7 km/h (1 Bft) N 349 2 min 0,000 mm 3,8 UV-I 685 W/m 17,5 C 20,7 C 6,4 km/h (2 Bft) 100,00 %
16.08.2016 11:00 20,7 C 81 % 1015,8 hPa 0,0 l/m 2,1 km/h (1 Bft) N-NW 340 2 min 0,254 mm 3,8 UV-I 691 W/m 17,3 C 20,7 C 4,8 km/h (1 Bft) 100,00 %
16.08.2016 11:02 20,6 C 80 % 1015,7 hPa 0,0 l/m 1,0 km/h (0 Bft) N 355 2 min 0,000 mm 3,9 UV-I 676 W/m 17,0 C 20,6 C 4,8 km/h (1 Bft) 100,00 %
16.08.2016 11:04 20,8 C 81 % 1015,7 hPa 0,0 l/m 2,6 km/h (1 Bft) NO 39 2 min 0,000 mm 4,0 UV-I 663 W/m 17,4 C 20,8 C 8,0 km/h (2 Bft) 98,21 %
16.08.2016 11:06 20,8 C 81 % 1015,7 hPa 0,0 l/m 3,1 km/h (1 Bft) NO 42 2 min 0,000 mm 4,0 UV-I 713 W/m 17,4 C 20,8 C 6,4 km/h (2 Bft) 100,00 %
16.08.2016 11:08 20,8 C 80 % 1015,6 hPa 0,0 l/m 1,7 km/h (1 Bft) O-NO 58 2 min 0,000 mm 4,0 UV-I 692 W/m 17,2 C 20,8 C 3,2 km/h (1 Bft) 100,00 %
16.08.2016 11:10 20,6 C 81 % 1015,6 hPa 0,0 l/m 1,2 km/h (1 Bft) O-NO 60 2 min 0,000 mm 4,0 UV-I 681 W/m 17,2 C 20,6 C 3,2 km/h (1 Bft) 100,00 %
16.08.2016 11:12 20,8 C 81 % 1015,6 hPa 0,0 l/m 2,0 km/h (1 Bft) N 5 2 min 0,000 mm 4,1 UV-I 708 W/m 17,4 C 20,8 C 4,8 km/h (1 Bft) 100,00 %
16.08.2016 11:14 21,0 C 82 % 1015,6 hPa 0,0 l/m 2,9 km/h (1 Bft) NO 34 2 min 0,000 mm 4,1 UV-I 695 W/m 17,8 C 21,0 C 6,4 km/h (2 Bft) 100,00 %
16.08.2016 11:16 21,3 C 79 % 1015,6 hPa 0,0 l/m 4,4 km/h (1 Bft) NO 40 2 min 0,000 mm 4,1 UV-I 684 W/m 17,5 C 21,3 C 6,4 km/h (2 Bft) 97,37 %
16.08.2016 11:18 21,3 C 77 % 1015,6 hPa 0,0 l/m 1,9 km/h (1 Bft) N-NW 340 2 min 0,000 mm 4,3 UV-I 716 W/m 17,1 C 21,3 C 3,2 km/h (1 Bft) 98,11 %
16.08.2016 11:20 21,3 C 80 % 1015,6 hPa 0,0 l/m 1,4 km/h (1 Bft) N-NW 338 2 min 0,000 mm 4,3 UV-I 732 W/m 17,7 C 21,3 C 3,2 km/h (1 Bft) 97,87 %
16.08.2016 11:22 21,2 C 78 % 1015,5 hPa 0,0 l/m 1,6 km/h (1 Bft) NW 311 2 min 0,000 mm 4,4 UV-I 722 W/m 17,2 C 21,2 C 3,2 km/h (1 Bft) 97,22 %
16.08.2016 11:24 21,2 C 78 % 1015,5 hPa 0,0 l/m 2,0 km/h (1 Bft) O 98 2 min 0,000 mm 4,4 UV-I 722 W/m 17,2 C 21,2 C 4,8 km/h (1 Bft) 98,08 %
16.08.2016 11:26 21,2 C 79 % 1015,5 hPa 0,0 l/m 3,8 km/h (1 Bft) NO 53 2 min 0,000 mm 4,5 UV-I 721 W/m 17,4 C 21,2 C 8,0 km/h (2 Bft) 97,87 %
16.08.2016 11:28 21,4 C 77 % 1015,4 hPa 0,0 l/m 4,1 km/h (1 Bft) NO 53 2 min 0,000 mm 4,4 UV-I 713 W/m 17,2 C 21,4 C 6,4 km/h (2 Bft) 95,74 %
16.08.2016 11:30 21,5 C 77 % 1015,5 hPa 0,0 l/m 5,2 km/h (1 Bft) NO 51 2 min 0,000 mm 4,5 UV-I 717 W/m 17,3 C 21,5 C 8,0 km/h (2 Bft) 100,00 %
16.08.2016 11:32 21,5 C 77 % 1015,4 hPa 0,0 l/m 4,3 km/h (1 Bft) O 88 2 min 0,000 mm 4,6 UV-I 723 W/m 17,3 C 21,5 C 6,4 km/h (2 Bft) 96,23 %
16.08.2016 11:34 21,4 C 77 % 1015,4 hPa 0,0 l/m 4,3 km/h (1 Bft) O-SO 116 2 min 0,000 mm 4,5 UV-I 719 W/m 17,2 C 21,4 C 6,4 km/h (2 Bft) 98,21 %
16.08.2016 11:36 21,4 C 76 % 1015,4 hPa 0,0 l/m 3,3 km/h (1 Bft) S-SO 151 2 min 0,000 mm 4,6 UV-I 726 W/m 17,0 C 21,4 C 8,0 km/h (2 Bft) 97,56 %
16.08.2016 11:38 21,6 C 77 % 1015,4 hPa 0,0 l/m 4,1 km/h (1 Bft) N-NO 15 2 min 0,000 mm 4,6 UV-I 721 W/m 17,4 C 21,6 C 8,0 km/h (2 Bft) 97,87 %
16.08.2016 11:40 21,8 C 76 % 1015,4 hPa 0,0 l/m 4,0 km/h (1 Bft) O-NO 59 2 min 0,000 mm 4,6 UV-I 724 W/m 17,4 C 21,8 C 8,0 km/h (2 Bft) 97,87 %
16.08.2016 11:42 21,7 C 75 % 1015,4 hPa 0,0 l/m 2,3 km/h (1 Bft) O 94 2 min 0,000 mm 4,7 UV-I 719 W/m 17,1 C 21,7 C 4,8 km/h (1 Bft) 98,00 %
16.08.2016 11:44 21,7 C 77 % 1015,4 hPa 0,0 l/m 1,4 km/h (1 Bft) O 101 2 min 0,000 mm 4,7 UV-I 734 W/m 17,5 C 21,7 C 3,2 km/h (1 Bft) 96,00 %
16.08.2016 11:46 21,7 C 75 % 1015,4 hPa 0,0 l/m 1,4 km/h (1 Bft) O-SO 115 2 min 0,000 mm 4,8 UV-I 737 W/m 17,1 C 21,7 C 3,2 km/h (1 Bft) 97,37 %
16.08.2016 11:48 21,8 C 78 % 1015,3 hPa 0,0 l/m 0,8 km/h (0 Bft) O-SO 115 2 min 0,000 mm 4,8 UV-I 737 W/m 17,8 C 21,8 C 3,2 km/h (1 Bft) 100,00 %
16.08.2016 11:50 22,2 C 76 % 1015,3 hPa 0,0 l/m 5,2 km/h (1 Bft) N-NW 345 2 min 0,000 mm 4,9 UV-I 749 W/m 17,8 C 22,2 C 9,7 km/h (2 Bft) 100,00 %
16.08.2016 11:52 22,7 C 74 % 1015,3 hPa 0,0 l/m 3,1 km/h (1 Bft) N-NO 16 2 min 0,000 mm 5,0 UV-I 760 W/m 17,8 C 22,7 C 6,4 km/h (2 Bft) 94,74 %
16.08.2016 11:54 22,8 C 71 % 1015,3 hPa 0,0 l/m 4,3 km/h (1 Bft) W-NW 298 2 min 0,000 mm 4,9 UV-I 759 W/m 17,3 C 22,8 C 8,0 km/h (2 Bft) 100,00 %
16.08.2016 11:56 22,5 C 73 % 1015,3 hPa 0,0 l/m 2,1 km/h (1 Bft) N-NW 345 2 min 0,000 mm 4,9 UV-I 767 W/m 17,4 C 22,5 C 6,4 km/h (2 Bft) 100,00 %
16.08.2016 11:58 22,5 C 73 % 1015,2 hPa 0,0 l/m 1,0 km/h (0 Bft) N-NW 347 2 min 0,000 mm 5,0 UV-I 760 W/m 17,4 C 22,5 C 3,2 km/h (1 Bft) 100,00 %
16.08.2016 12:00 22,5 C 74 % 1015,2 hPa 0,0 l/m 1,5 km/h (1 Bft) N 351 2 min 0,432 mm 5,0 UV-I 754 W/m 17,6 C 22,5 C 4,8 km/h (1 Bft) 100,00 %
16.08.2016 12:02 22,4 C 72 % 1015,2 hPa 0,0 l/m 1,3 km/h (1 Bft) NO 54 2 min 0,000 mm 5,0 UV-I 758 W/m 17,1 C 22,4 C 4,8 km/h (1 Bft) 100,00 %
16.08.2016 12:04 22,3 C 72 % 1015,2 hPa 0,0 l/m 3,1 km/h (1 Bft) S-SO 147 2 min 0,000 mm 5,1 UV-I 762 W/m 17,0 C 22,3 C 6,4 km/h (2 Bft) 100,00 %
16.08.2016 12:06 22,3 C 75 % 1015,1 hPa 0,0 l/m 3,1 km/h (1 Bft) NW 313 2 min 0,000 mm 5,1 UV-I 764 W/m 17,6 C 22,3 C 9,7 km/h (2 Bft) 100,00 %
16.08.2016 12:08 22,7 C 72 % 1015,1 hPa 0,0 l/m 2,2 km/h (1 Bft) N-NO 17 2 min 0,000 mm 5,2 UV-I 770 W/m 17,4 C 22,7 C 4,8 km/h (1 Bft) 100,00 %
16.08.2016 12:10 23,0 C 73 % 1015,1 hPa 0,0 l/m 3,0 km/h (1 Bft) N-NO 16 2 min 0,000 mm 5,1 UV-I 773 W/m 17,9 C 23,0 C 6,4 km/h (2 Bft) 100,00 %
16.08.2016 12:12 22,9 C 69 % 1015,1 hPa 0,0 l/m 2,8 km/h (1 Bft) N-NO 19 2 min 0,000 mm 5,2 UV-I 767 W/m 16,9 C 22,9 C 4,8 km/h (1 Bft) 100,00 %
16.08.2016 12:14 22,8 C 70 % 1015,1 hPa 0,0 l/m 2,7 km/h (1 Bft) N-NW 328 2 min 0,000 mm 5,2 UV-I 772 W/m 17,0 C 22,8 C 8,0 km/h (2 Bft) 100,00 %
16.08.2016 12:16 22,7 C 70 % 1015,1 hPa 0,0 l/m 2,4 km/h (1 Bft) W-NW 284 2 min 0,000 mm 5,2 UV-I 776 W/m 16,9 C 22,7 C 4,8 km/h (1 Bft) 100,00 %
16.08.2016 12:18 22,5 C 71 % 1015,0 hPa 0,0 l/m 1,5 km/h (1 Bft) N-NO 22 2 min 0,000 mm 5,3 UV-I 781 W/m 17,0 C 22,5 C 4,8 km/h (1 Bft) 100,00 %
16.08.2016 12:20 22,4 C 69 % 1015,0 hPa 0,0 l/m 3,1 km/h (1 Bft) O-NO 64 2 min 0,000 mm 5,3 UV-I 783 W/m 16,4 C 22,4 C 6,4 km/h (2 Bft) 100,00 %
16.08.2016 12:22 22,6 C 70 % 1015,0 hPa 0,0 l/m 2,5 km/h (1 Bft) NO 55 2 min 0,000 mm 5,3 UV-I 783 W/m 16,8 C 22,6 C 4,8 km/h (1 Bft) 97,73 %
16.08.2016 12:24 22,7 C 68 % 1015,0 hPa 0,0 l/m 3,7 km/h (1 Bft) N 11 2 min 0,000 mm 5,4 UV-I 784 W/m 16,5 C 22,7 C 4,8 km/h (1 Bft) 100,00 %
16.08.2016 12:26 23,2 C 69 % 1015,0 hPa 0,0 l/m 6,8 km/h (2 Bft) NO 51 2 min 0,000 mm 5,4 UV-I 787 W/m 17,2 C 23,1 C 9,7 km/h (2 Bft) 100,00 %
16.08.2016 12:28 23,1 C 67 % 1015,0 hPa 0,0 l/m 1,3 km/h (1 Bft) NO 51 2 min 0,000 mm 5,4 UV-I 789 W/m 16,6 C 23,1 C 3,2 km/h (1 Bft) 98,11 %
16.08.2016 12:30 23,2 C 69 % 1015,0 hPa 0,0 l/m 1,1 km/h (1 Bft) W 275 2 min 0,000 mm 5,4 UV-I 793 W/m 17,2 C 23,2 C 4,8 km/h (1 Bft) 97,37 %
16.08.2016 12:32 23,3 C 68 % 1015,0 hPa 0,0 l/m 4,6 km/h (1 Bft) NW 321 2 min 0,000 mm 5,4 UV-I 788 W/m 17,1 C 23,3 C 6,4 km/h (2 Bft) 100,00 %
16.08.2016 12:34 23,5 C 65 % 1014,9 hPa 0,0 l/m 5,0 km/h (1 Bft) W-NW 291 2 min 0,000 mm 5,5 UV-I 796 W/m 16,5 C 23,5 C 8,0 km/h (2 Bft) 100,00 %
16.08.2016 12:36 23,4 C 69 % 1015,0 hPa 0,0 l/m 5,2 km/h (1 Bft) W 261 2 min 0,000 mm 5,4 UV-I 783 W/m 17,4 C 23,4 C 8,0 km/h (2 Bft) 100,00 %
16.08.2016 12:38 23,2 C 64 % 1014,9 hPa 0,0 l/m 4,1 km/h (1 Bft) SW 220 2 min 0,000 mm 5,4 UV-I 786 W/m 16,0 C 23,2 C 6,4 km/h (2 Bft) 98,00 %
16.08.2016 12:40 23,1 C 67 % 1014,9 hPa 0,0 l/m 5,8 km/h (2 Bft) S-SW 198 2 min 0,000 mm 5,5 UV-I 792 W/m 16,6 C 23,1 C 9,7 km/h (2 Bft) 100,00 %
16.08.2016 12:42 23,2 C 68 % 1014,9 hPa 0,0 l/m 5,1 km/h (1 Bft) S 188 2 min 0,000 mm 5,5 UV-I 795 W/m 17,0 C 23,2 C 9,7 km/h (2 Bft) 100,00 %
16.08.2016 12:44 23,4 C 68 % 1014,8 hPa 0,0 l/m 4,3 km/h (1 Bft) S-SW 195 2 min 0,000 mm 5,5 UV-I 793 W/m 17,1 C 23,4 C 6,4 km/h (2 Bft) 100,00 %
16.08.2016 12:46 23,4 C 64 % 1014,8 hPa 0,0 l/m 1,3 km/h (1 Bft) S-SW 195 2 min 0,000 mm 5,5 UV-I 798 W/m 16,2 C 23,4 C 4,8 km/h (1 Bft) 98,00 %
16.08.2016 12:48 23,4 C 65 % 1014,8 hPa 0,0 l/m 2,6 km/h (1 Bft) N-NW 348 2 min 0,000 mm 5,5 UV-I 793 W/m 16,4 C 23,4 C 6,4 km/h (2 Bft) 100,00 %
16.08.2016 12:50 23,7 C 64 % 1014,7 hPa 0,0 l/m 3,1 km/h (1 Bft) NO 55 2 min 0,000 mm 5,5 UV-I 790 W/m 16,5 C 23,7 C 6,4 km/h (2 Bft) 100,00 %
16.08.2016 12:52 23,9 C 64 % 1014,8 hPa 0,0 l/m 2,4 km/h (1 Bft) N-NO 24 2 min 0,000 mm 5,5 UV-I 783 W/m 16,7 C 23,9 C 4,8 km/h (1 Bft) 97,87 %
16.08.2016 12:54 24,1 C 64 % 1014,7 hPa 0,0 l/m 6,8 km/h (2 Bft) NO 53 2 min 0,000 mm 5,5 UV-I 791 W/m 16,9 C 24,0 C 12,9 km/h (3 Bft) 98,00 %
16.08.2016 12:56 23,9 C 62 % 1014,6 hPa 0,0 l/m 4,3 km/h (1 Bft) NO 42 2 min 0,000 mm 5,5 UV-I 791 W/m 16,2 C 23,9 C 11,3 km/h (2 Bft) 98,00 %
16.08.2016 12:58 24,1 C 64 % 1014,6 hPa 0,0 l/m 7,1 km/h (2 Bft) NO 35 2 min 0,000 mm 5,5 UV-I 792 W/m 16,9 C 23,9 C 11,3 km/h (2 Bft) 97,37 %
16.08.2016 13:00 23,9 C 65 % 1014,6 hPa 0,0 l/m 2,3 km/h (1 Bft) N-NW 330 2 min 0,482 mm 5,5 UV-I 794 W/m 16,9 C 23,9 C 6,4 km/h (2 Bft) 100,00 %
16.08.2016 13:02 24,0 C 64 % 1014,6 hPa 0,0 l/m 3,7 km/h (1 Bft) N 10 2 min 0,000 mm 5,5 UV-I 790 W/m 16,8 C 24,0 C 8,0 km/h (2 Bft) 100,00 %
16.08.2016 13:04 23,8 C 63 % 1014,6 hPa 0,0 l/m 3,0 km/h (1 Bft) N-NO 22 2 min 0,000 mm 5,6 UV-I 797 W/m 16,3 C 23,8 C 6,4 km/h (2 Bft) 100,00 %
16.08.2016 13:06 24,0 C 65 % 1014,5 hPa 0,0 l/m 9,8 km/h (2 Bft) N-NO 22 2 min 0,000 mm 5,6 UV-I 802 W/m 17,0 C 23,1 C 12,9 km/h (3 Bft) 100,00 %
16.08.2016 13:08 24,2 C 64 % 1014,6 hPa 0,0 l/m 3,4 km/h (1 Bft) N-NO 30 2 min 0,000 mm 5,5 UV-I 796 W/m 16,9 C 24,2 C 11,3 km/h (2 Bft) 100,00 %
16.08.2016 13:10 24,3 C 62 % 1014,6 hPa 0,0 l/m 7,4 km/h (2 Bft) N-NO 17 2 min 0,000 mm 5,5 UV-I 795 W/m 16,5 C 24,0 C 12,9 km/h (3 Bft) 98,11 %
16.08.2016 13:12 24,3 C 62 % 1014,5 hPa 0,0 l/m 5,1 km/h (1 Bft) NO 39 2 min 0,000 mm 5,6 UV-I 800 W/m 16,5 C 24,3 C 9,7 km/h (2 Bft) 98,00 %
16.08.2016 13:14 24,4 C 65 % 1014,6 hPa 0,0 l/m 9,1 km/h (2 Bft) N 9 2 min 0,000 mm 5,6 UV-I 803 W/m 17,4 C 23,7 C 12,9 km/h (3 Bft) 97,73 %
16.08.2016 13:16 24,3 C 61 % 1014,5 hPa 0,0 l/m 3,0 km/h (1 Bft) O 82 2 min 0,000 mm 5,6 UV-I 798 W/m 16,3 C 24,3 C 6,4 km/h (2 Bft) 97,56 %
16.08.2016 13:18 24,2 C 62 % 1014,5 hPa 0,0 l/m 3,0 km/h (1 Bft) O-NO 70 2 min 0,000 mm 5,5 UV-I 795 W/m 16,4 C 24,2 C 6,4 km/h (2 Bft) 98,00 %
16.08.2016 13:20 24,0 C 61 % 1014,5 hPa 0,0 l/m 3,5 km/h (1 Bft) O 88 2 min 0,000 mm 5,5 UV-I 793 W/m 16,0 C 24,0 C 4,8 km/h (1 Bft) 96,00 %
16.08.2016 13:22 23,8 C 62 % 1014,5 hPa 0,0 l/m 2,1 km/h (1 Bft) SO 128 2 min 0,000 mm 5,5 UV-I 803 W/m 16,1 C 23,8 C 4,8 km/h (1 Bft) 98,00 %
16.08.2016 13:24 23,8 C 62 % 1014,5 hPa 0,0 l/m 3,0 km/h (1 Bft) O 93 2 min 0,000 mm 5,6 UV-I 807 W/m 16,1 C 23,8 C 6,4 km/h (2 Bft) 97,37 %
16.08.2016 13:26 24,0 C 66 % 1014,5 hPa 0,0 l/m 4,1 km/h (1 Bft) NO 39 2 min 0,000 mm 5,5 UV-I 797 W/m 17,2 C 24,0 C 8,0 km/h (2 Bft) 98,00 %
16.08.2016 13:28 24,3 C 64 % 1014,4 hPa 0,0 l/m 6,0 km/h (2 Bft) NO 44 2 min 0,000 mm 5,5 UV-I 792 W/m 17,0 C 24,3 C 9,7 km/h (2 Bft) 96,23 %
16.08.2016 13:30 24,6 C 61 % 1014,4 hPa 0,0 l/m 7,6 km/h (2 Bft) N-NO 19 2 min 0,000 mm 5,5 UV-I 792 W/m 16,6 C 24,3 C 12,9 km/h (3 Bft) 97,37 %
16.08.2016 13:32 24,7 C 64 % 1014,4 hPa 0,0 l/m 6,9 km/h (2 Bft) N-NO 25 2 min 0,000 mm 5,4 UV-I 791 W/m 17,4 C 24,6 C 14,5 km/h (3 Bft) 97,56 %
16.08.2016 13:34 24,8 C 56 % 1014,4 hPa 0,0 l/m 5,1 km/h (1 Bft) N-NO 13 2 min 0,000 mm 5,4 UV-I 786 W/m 15,4 C 24,8 C 9,7 km/h (2 Bft) 98,21 %
16.08.2016 13:36 25,1 C 58 % 1014,3 hPa 0,0 l/m 8,2 km/h (2 Bft) N-NO 19 2 min 0,000 mm 5,4 UV-I 786 W/m 16,2 C 24,7 C 12,9 km/h (3 Bft) 98,00 %
16.08.2016 13:38 25,2 C 56 % 1014,3 hPa 0,0 l/m 6,5 km/h (2 Bft) N-NO 17 2 min 0,000 mm 5,3 UV-I 782 W/m 15,8 C 25,2 C 12,9 km/h (3 Bft) 97,87 %
16.08.2016 13:40 25,1 C 52 % 1014,3 hPa 0,0 l/m 3,5 km/h (1 Bft) N-NO 24 2 min 0,000 mm 5,3 UV-I 779 W/m 14,5 C 25,1 C 8,0 km/h (2 Bft) 97,37 %
16.08.2016 13:42 24,8 C 54 % 1014,3 hPa 0,0 l/m 3,1 km/h (1 Bft) W-NW 294 2 min 0,000 mm 5,3 UV-I 778 W/m 14,8 C 24,8 C 8,0 km/h (2 Bft) 98,11 %
16.08.2016 13:44 24,6 C 56 % 1014,3 hPa 0,0 l/m 3,8 km/h (1 Bft) N-NW 337 2 min 0,000 mm 5,4 UV-I 786 W/m 15,2 C 24,6 C 6,4 km/h (2 Bft) 96,30 %
16.08.2016 13:46 24,6 C 56 % 1014,3 hPa 0,0 l/m 3,8 km/h (1 Bft) N-NO 30 2 min 0,000 mm 5,4 UV-I 792 W/m 15,2 C 24,6 C 12,9 km/h (3 Bft) 100,00 %
16.08.2016 13:48 24,9 C 58 % 1014,3 hPa 0,0 l/m 3,9 km/h (1 Bft) N 360 2 min 0,000 mm 5,3 UV-I 788 W/m 16,1 C 24,9 C 8,0 km/h (2 Bft) 100,00 %
16.08.2016 13:50 24,8 C 55 % 1014,2 hPa 0,0 l/m 3,2 km/h (1 Bft) N-NO 22 2 min 0,000 mm 5,3 UV-I 785 W/m 15,1 C 24,8 C 6,4 km/h (2 Bft) 100,00 %
16.08.2016 13:52 24,8 C 56 % 1014,2 hPa 0,0 l/m 2,8 km/h (1 Bft) N-NO 33 2 min 0,000 mm 5,3 UV-I 786 W/m 15,4 C 24,8 C 6,4 km/h (2 Bft) 100,00 %
16.08.2016 13:54 24,9 C 58 % 1014,2 hPa 0,0 l/m 3,2 km/h (1 Bft) NO 38 2 min 0,000 mm 5,2 UV-I 779 W/m 16,1 C 24,9 C 4,8 km/h (1 Bft) 100,00 %
16.08.2016 13:56 25,1 C 57 % 1014,2 hPa 0,0 l/m 1,7 km/h (1 Bft) NW 306 2 min 0,000 mm 5,1 UV-I 770 W/m 16,0 C 25,1 C 3,2 km/h (1 Bft) 100,00 %
16.08.2016 13:58 25,3 C 59 % 1014,1 hPa 0,0 l/m 2,8 km/h (1 Bft) N 349 2 min 0,000 mm 5,2 UV-I 775 W/m 16,7 C 25,3 C 4,8 km/h (1 Bft) 100,00 %
16.08.2016 14:00 25,3 C 57 % 1014,2 hPa 0,0 l/m 2,9 km/h (1 Bft) N 355 2 min 0,508 mm 5,1 UV-I 775 W/m 16,2 C 25,3 C 8,0 km/h (2 Bft) 100,00 %
16.08.2016 14:02 25,1 C 59 % 1014,1 hPa 0,0 l/m 2,0 km/h (1 Bft) N 355 2 min 0,000 mm 5,2 UV-I 785 W/m 16,5 C 25,1 C 4,8 km/h (1 Bft) 100,00 %
16.08.2016 14:04 25,1 C 54 % 1014,1 hPa 0,0 l/m 1,1 km/h (1 Bft) N-NW 338 2 min 0,000 mm 5,2 UV-I 795 W/m 15,1 C 25,1 C 4,8 km/h (1 Bft) 100,00 %
16.08.2016 14:06 25,1 C 54 % 1014,1 hPa 0,0 l/m 4,3 km/h (1 Bft) W 279 2 min 0,000 mm 4,3 UV-I 794 W/m 15,1 C 25,1 C 11,3 km/h (2 Bft) 100,00 %
16.08.2016 14:08 24,9 C 54 % 1014,1 hPa 0,0 l/m 4,2 km/h (1 Bft) N-NW 329 2 min 0,000 mm 5,2 UV-I 796 W/m 14,9 C 24,9 C 6,4 km/h (2 Bft) 100,00 %
16.08.2016 14:10 24,9 C 54 % 1014,1 hPa 0,0 l/m 3,0 km/h (1 Bft) N-NW 329 2 min 0,000 mm 5,0 UV-I 779 W/m 14,9 C 24,9 C 6,4 km/h (2 Bft) 100,00 %
16.08.2016 14:12 24,9 C 54 % 1014,1 hPa 0,0 l/m 7,0 km/h (2 Bft) W-SW 242 2 min 0,000 mm 4,9 UV-I 775 W/m 14,9 C 24,7 C 11,3 km/h (2 Bft) 100,00 %
16.08.2016 14:14 24,8 C 56 % 1014,0 hPa 0,0 l/m 6,4 km/h (2 Bft) S-SW 192 2 min 0,000 mm 4,9 UV-I 786 W/m 15,4 C 24,8 C 9,7 km/h (2 Bft) 100,00 %
16.08.2016 14:16 24,5 C 55 % 1014,0 hPa 0,0 l/m 3,3 km/h (1 Bft) S-SO 161 2 min 0,000 mm 4,8 UV-I 787 W/m 14,9 C 24,5 C 6,4 km/h (2 Bft) 100,00 %
16.08.2016 14:18 24,4 C 56 % 1014,0 hPa 0,0 l/m 1,4 km/h (1 Bft) S-SO 163 2 min 0,000 mm 4,8 UV-I 768 W/m 15,0 C 24,4 C 3,2 km/h (1 Bft) 100,00 %
16.08.2016 14:20 24,6 C 56 % 1014,0 hPa 0,0 l/m 0,9 km/h (0 Bft) S-SO 163 2 min 0,000 mm 4,9 UV-I 779 W/m 15,2 C 24,6 C 3,2 km/h (1 Bft) 100,00 %
16.08.2016 14:22 24,9 C 57 % 1013,9 hPa 0,0 l/m 2,9 km/h (1 Bft) NO 36 2 min 0,000 mm 4,9 UV-I 797 W/m 15,8 C 24,9 C 6,4 km/h (2 Bft) 100,00 %
16.08.2016 14:24 25,2 C 57 % 1013,9 hPa 0,0 l/m 4,0 km/h (1 Bft) N 355 2 min 0,000 mm 4,9 UV-I 801 W/m 16,1 C 25,2 C 6,4 km/h (2 Bft) 100,00 %
16.08.2016 14:26 25,2 C 54 % 1013,9 hPa 0,0 l/m 1,9 km/h (1 Bft) W-NW 295 2 min 0,000 mm 4,8 UV-I 802 W/m 15,2 C 25,2 C 4,8 km/h (1 Bft) 100,00 %
16.08.2016 14:28 25,2 C 52 % 1013,9 hPa 0,0 l/m 2,1 km/h (1 Bft) N 355 2 min 0,000 mm 4,8 UV-I 814 W/m 14,6 C 25,2 C 4,8 km/h (1 Bft) 100,00 %
16.08.2016 14:30 25,4 C 53 % 1013,9 hPa 0,0 l/m 3,4 km/h (1 Bft) NW 309 2 min 0,000 mm 4,8 UV-I 821 W/m 15,1 C 25,4 C 6,4 km/h (2 Bft) 100,00 %
16.08.2016 14:32 25,7 C 54 % 1013,8 hPa 0,0 l/m 7,6 km/h (2 Bft) N-NO 21 2 min 0,000 mm 4,8 UV-I 816 W/m 15,7 C 25,4 C 14,5 km/h (3 Bft) 100,00 %
16.08.2016 14:34 25,7 C 55 % 1013,8 hPa 0,0 l/m 6,7 km/h (2 Bft) O-NO 74 2 min 0,000 mm 4,7 UV-I 800 W/m 16,0 C 25,6 C 12,9 km/h (3 Bft) 100,00 %
16.08.2016 14:36 25,6 C 54 % 1013,7 hPa 0,0 l/m 1,6 km/h (1 Bft) NW 321 2 min 0,000 mm 4,6 UV-I 798 W/m 15,6 C 25,6 C 4,8 km/h (1 Bft) 100,00 %
16.08.2016 14:38 25,6 C 53 % 1013,7 hPa 0,0 l/m 3,5 km/h (1 Bft) O-NO 57 2 min 0,000 mm 4,4 UV-I 830 W/m 15,3 C 25,6 C 8,0 km/h (2 Bft) 100,00 %
16.08.2016 14:40 25,6 C 56 % 1013,7 hPa 0,0 l/m 2,8 km/h (1 Bft) W-NW 296 2 min 0,000 mm 4,4 UV-I 847 W/m 16,2 C 25,6 C 9,7 km/h (2 Bft) 100,00 %
16.08.2016 14:42 25,6 C 55 % 1013,7 hPa 0,0 l/m 5,9 km/h (2 Bft) N-NO 29 2 min 0,000 mm 4,1 UV-I 803 W/m 15,9 C 25,6 C 14,5 km/h (3 Bft) 100,00 %
16.08.2016 14:44 25,7 C 55 % 1013,7 hPa 0,0 l/m 3,4 km/h (1 Bft) W 264 2 min 0,000 mm 4,4 UV-I 786 W/m 16,0 C 25,7 C 8,0 km/h (2 Bft) 100,00 %
16.08.2016 14:46 26,0 C 55 % 1013,6 hPa 0,0 l/m 3,5 km/h (1 Bft) NO 44 2 min 0,000 mm 4,0 UV-I 779 W/m 16,2 C 26,0 C 9,7 km/h (2 Bft) 100,00 %
16.08.2016 14:48 25,8 C 54 % 1013,6 hPa 0,0 l/m 9,4 km/h (2 Bft) NO 34 2 min 0,000 mm 3,2 UV-I 499 W/m 15,8 C 25,2 C 14,5 km/h (3 Bft) 97,87 %
16.08.2016 14:50 25,3 C 54 % 1013,7 hPa 0,0 l/m 8,4 km/h (2 Bft) NO 36 0 min 0,000 mm 3,0 UV-I 283 W/m 15,3 C 24,8 C 14,5 km/h (3 Bft) 100,00 %
16.08.2016 14:52 25,0 C 54 % 1013,6 hPa 0,0 l/m 3,7 km/h (1 Bft) N-NO 26 0 min 0,000 mm 2,8 UV-I 247 W/m 15,0 C 25,0 C 9,7 km/h (2 Bft) 97,44 %
16.08.2016 14:54 24,8 C 53 % 1013,6 hPa 0,0 l/m 2,9 km/h (1 Bft) W 276 0 min 0,000 mm 3,1 UV-I 265 W/m 14,6 C 24,8 C 8,0 km/h (2 Bft) 100,00 %
16.08.2016 14:56 24,7 C 54 % 1013,6 hPa 0,0 l/m 5,1 km/h (1 Bft) SW 228 0 min 0,000 mm 3,5 UV-I 265 W/m 14,8 C 24,7 C 8,0 km/h (2 Bft) 97,56 %
16.08.2016 14:58 24,6 C 54 % 1013,5 hPa 0,0 l/m 2,8 km/h (1 Bft) S-SW 208 2 min 0,000 mm 3,9 UV-I 543 W/m 14,7 C 24,6 C 4,8 km/h (1 Bft) 97,87 %
16.08.2016 15:00 24,9 C 57 % 1013,5 hPa 0,0 l/m 3,4 km/h (1 Bft) N 11 2 min 0,483 mm 4,1 UV-I 781 W/m 15,8 C 24,9 C 8,0 km/h (2 Bft) 100,00 %
16.08.2016 15:02 25,2 C 54 % 1013,5 hPa 0,0 l/m 2,5 km/h (1 Bft) NO 46 2 min 0,000 mm 3,7 UV-I 772 W/m 15,2 C 25,2 C 4,8 km/h (1 Bft) 100,00 %
16.08.2016 15:04 25,4 C 54 % 1013,4 hPa 0,0 l/m 2,7 km/h (1 Bft) NW 306 2 min 0,000 mm 4,2 UV-I 799 W/m 15,4 C 25,4 C 4,8 km/h (1 Bft) 97,37 %
16.08.2016 15:06 25,7 C 54 % 1013,4 hPa 0,0 l/m 4,9 km/h (1 Bft) N-NW 329 2 min 0,000 mm 4,0 UV-I 786 W/m 15,7 C 25,7 C 12,9 km/h (3 Bft) 100,00 %
16.08.2016 15:08 25,8 C 53 % 1013,4 hPa 0,0 l/m 4,4 km/h (1 Bft) N-NO 32 2 min 0,000 mm 3,9 UV-I 717 W/m 15,5 C 25,8 C 9,7 km/h (2 Bft) 98,00 %
16.08.2016 15:10 25,7 C 55 % 1013,3 hPa 0,0 l/m 7,4 km/h (2 Bft) NO 49 2 min 0,000 mm 3,8 UV-I 737 W/m 16,0 C 25,5 C 9,7 km/h (2 Bft) 97,56 %
16.08.2016 15:12 25,5 C 53 % 1013,3 hPa 0,0 l/m 4,9 km/h (1 Bft) NO 38 2 min 0,000 mm 3,2 UV-I 737 W/m 15,2 C 25,5 C 9,7 km/h (2 Bft) 96,08 %
16.08.2016 15:14 25,4 C 58 % 1013,2 hPa 0,0 l/m 3,7 km/h (1 Bft) O-NO 59 2 min 0,000 mm 3,8 UV-I 734 W/m 16,5 C 25,4 C 6,4 km/h (2 Bft) 97,44 %
16.08.2016 15:16 25,4 C 53 % 1013,2 hPa 0,0 l/m 6,5 km/h (2 Bft) O-NO 58 2 min 0,000 mm 3,8 UV-I 714 W/m 15,1 C 25,4 C 9,7 km/h (2 Bft) 98,00 %
16.08.2016 15:18 25,5 C 54 % 1013,2 hPa 0,0 l/m 6,1 km/h (2 Bft) O 98 2 min 0,000 mm 3,8 UV-I 694 W/m 15,5 C 25,5 C 8,0 km/h (2 Bft) 97,87 %
16.08.2016 15:20 25,4 C 53 % 1013,1 hPa 0,0 l/m 6,5 km/h (2 Bft) O-SO 103 2 min 0,000 mm 3,8 UV-I 689 W/m 15,1 C 25,4 C 11,3 km/h (2 Bft) 96,23 %
16.08.2016 15:22 25,3 C 52 % 1013,1 hPa 0,0 l/m 6,0 km/h (2 Bft) O 92 2 min 0,000 mm 3,7 UV-I 687 W/m 14,7 C 25,3 C 9,7 km/h (2 Bft) 97,67 %
16.08.2016 15:24 25,3 C 55 % 1013,1 hPa 0,0 l/m 2,1 km/h (1 Bft) O 100 2 min 0,000 mm 3,7 UV-I 694 W/m 15,6 C 25,3 C 4,8 km/h (1 Bft) 98,11 %
16.08.2016 15:26 25,5 C 54 % 1013,0 hPa 0,0 l/m 4,1 km/h (1 Bft) SO 125 2 min 0,000 mm 3,8 UV-I 712 W/m 15,5 C 25,5 C 8,0 km/h (2 Bft) 97,56 %
16.08.2016 15:28 25,4 C 51 % 1013,0 hPa 0,0 l/m 2,0 km/h (1 Bft) O 101 2 min 0,000 mm 3,8 UV-I 718 W/m 14,5 C 25,4 C 4,8 km/h (1 Bft) 95,12 %
16.08.2016 15:30 25,5 C 57 % 1013,0 hPa 0,0 l/m 4,1 km/h (1 Bft) O-SO 111 2 min 0,000 mm 3,7 UV-I 717 W/m 16,3 C 25,5 C 6,4 km/h (2 Bft) 96,00 %
16.08.2016 15:32 25,6 C 54 % 1013,0 hPa 0,0 l/m 4,0 km/h (1 Bft) O-SO 104 2 min 0,000 mm 3,6 UV-I 709 W/m 15,6 C 25,6 C 6,4 km/h (2 Bft) 98,00 %
16.08.2016 15:34 25,7 C 53 % 1013,0 hPa 0,0 l/m 3,7 km/h (1 Bft) SO 140 2 min 0,000 mm 3,6 UV-I 718 W/m 15,4 C 25,7 C 6,4 km/h (2 Bft) 97,87 %
16.08.2016 15:36 25,7 C 55 % 1012,9 hPa 0,0 l/m 2,3 km/h (1 Bft) S 173 2 min 0,000 mm 3,6 UV-I 733 W/m 16,0 C 25,7 C 4,8 km/h (1 Bft) 97,56 %
16.08.2016 15:38 25,8 C 55 % 1013,0 hPa 0,0 l/m 4,5 km/h (1 Bft) W-SW 242 2 min 0,000 mm 3,6 UV-I 734 W/m 16,1 C 25,8 C 8,0 km/h (2 Bft) 98,00 %
16.08.2016 15:40 25,9 C 51 % 1012,9 hPa 0,0 l/m 5,8 km/h (2 Bft) W-SW 238 2 min 0,000 mm 3,6 UV-I 717 W/m 15,0 C 25,9 C 8,0 km/h (2 Bft) 100,00 %
16.08.2016 15:42 25,8 C 53 % 1012,9 hPa 0,0 l/m 5,4 km/h (1 Bft) W-SW 245 2 min 0,000 mm 3,5 UV-I 697 W/m 15,5 C 25,8 C 9,7 km/h (2 Bft) 97,37 %
16.08.2016 15:44 25,8 C 53 % 1012,9 hPa 0,0 l/m 8,0 km/h (2 Bft) SW 236 2 min 0,000 mm 3,4 UV-I 685 W/m 15,5 C 25,4 C 12,9 km/h (3 Bft) 100,00 %
16.08.2016 15:46 25,8 C 54 % 1012,8 hPa 0,0 l/m 12,8 km/h (3 Bft) W-SW 248 2 min 0,000 mm 3,3 UV-I 677 W/m 15,8 C 24,6 C 17,7 km/h (3 Bft) 100,00 %
16.08.2016 15:48 25,6 C 51 % 1012,8 hPa 0,0 l/m 8,0 km/h (2 Bft) S-SW 205 2 min 0,000 mm 3,3 UV-I 679 W/m 14,7 C 25,2 C 12,9 km/h (3 Bft) 100,00 %
16.08.2016 15:50 25,6 C 52 % 1012,7 hPa 0,0 l/m 4,4 km/h (1 Bft) W-NW 298 2 min 0,000 mm 3,3 UV-I 668 W/m 15,0 C 25,6 C 9,7 km/h (2 Bft) 100,00 %
16.08.2016 15:52 25,7 C 53 % 1012,7 hPa 0,0 l/m 2,5 km/h (1 Bft) N-NO 19 2 min 0,000 mm 3,2 UV-I 658 W/m 15,4 C 25,7 C 4,8 km/h (1 Bft) 98,00 %
16.08.2016 15:54 25,8 C 53 % 1012,7 hPa 0,0 l/m 3,1 km/h (1 Bft) SW 221 2 min 0,000 mm 3,1 UV-I 659 W/m 15,5 C 25,8 C 6,4 km/h (2 Bft) 100,00 %
16.08.2016 15:56 25,9 C 54 % 1012,7 hPa 0,0 l/m 2,6 km/h (1 Bft) NW 325 2 min 0,000 mm 3,1 UV-I 638 W/m 15,9 C 25,9 C 6,4 km/h (2 Bft) 100,00 %
16.08.2016 15:58 25,8 C 53 % 1012,7 hPa 0,0 l/m 2,4 km/h (1 Bft) W-NW 286 2 min 0,000 mm 3,1 UV-I 685 W/m 15,5 C 25,8 C 8,0 km/h (2 Bft) 100,00 %
16.08.2016 16:00 25,9 C 51 % 1012,7 hPa 0,0 l/m 3,5 km/h (1 Bft) W-NW 300 2 min 0,457 mm 3,1 UV-I 684 W/m 15,0 C 25,9 C 6,4 km/h (2 Bft) 100,00 %
16.08.2016 16:02 25,9 C 52 % 1012,6 hPa 0,0 l/m 3,0 km/h (1 Bft) NO 37 2 min 0,000 mm 3,1 UV-I 661 W/m 15,3 C 25,9 C 8,0 km/h (2 Bft) 100,00 %
16.08.2016 16:04 25,9 C 50 % 1012,6 hPa 0,0 l/m 4,6 km/h (1 Bft) O 96 2 min 0,000 mm 3,0 UV-I 643 W/m 14,7 C 25,9 C 6,4 km/h (2 Bft) 97,87 %
16.08.2016 16:06 25,9 C 51 % 1012,6 hPa 0,0 l/m 1,8 km/h (1 Bft) N-NW 342 2 min 0,000 mm 2,9 UV-I 640 W/m 15,0 C 25,9 C 3,2 km/h (1 Bft) 100,00 %
16.08.2016 16:08 26,0 C 55 % 1012,5 hPa 0,0 l/m 1,0 km/h (0 Bft) SO 146 2 min 0,000 mm 2,9 UV-I 633 W/m 16,2 C 26,0 C 4,8 km/h (1 Bft) 100,00 %
16.08.2016 16:10 26,1 C 53 % 1012,5 hPa 0,0 l/m 3,0 km/h (1 Bft) S-SW 207 2 min 0,000 mm 2,8 UV-I 602 W/m 15,8 C 26,1 C 6,4 km/h (2 Bft) 100,00 %
16.08.2016 16:12 25,9 C 51 % 1012,5 hPa 0,0 l/m 4,0 km/h (1 Bft) S-SW 209 2 min 0,000 mm 2,7 UV-I 588 W/m 15,0 C 25,9 C 6,4 km/h (2 Bft) 94,74 %
16.08.2016 16:14 25,8 C 50 % 1012,4 hPa 0,0 l/m 3,9 km/h (1 Bft) S-SO 151 2 min 0,000 mm 2,7 UV-I 606 W/m 14,6 C 25,8 C 8,0 km/h (2 Bft) 100,00 %
16.08.2016 16:16 25,7 C 50 % 1012,4 hPa 0,0 l/m 2,4 km/h (1 Bft) S-SO 151 2 min 0,000 mm 2,7 UV-I 626 W/m 14,5 C 25,7 C 4,8 km/h (1 Bft) 100,00 %
16.08.2016 16:18 25,8 C 54 % 1012,4 hPa 0,0 l/m 0,6 km/h (0 Bft) S-SO 151 2 min 0,000 mm 2,7 UV-I 624 W/m 15,8 C 25,8 C 1,6 km/h (1 Bft) 98,00 %
16.08.2016 16:20 25,9 C 52 % 1012,3 hPa 0,0 l/m 2,0 km/h (1 Bft) NO 36 2 min 0,000 mm 2,6 UV-I 614 W/m 15,3 C 25,9 C 6,4 km/h (2 Bft) 97,37 %
16.08.2016 16:22 26,1 C 51 % 1012,3 hPa 0,0 l/m 7,0 km/h (2 Bft) O-NO 62 2 min 0,000 mm 2,0 UV-I 473 W/m 15,2 C 26,0 C 12,9 km/h (3 Bft) 100,00 %
16.08.2016 16:24 25,9 C 50 % 1012,3 hPa 0,0 l/m 2,1 km/h (1 Bft) N-NO 19 0 min 0,000 mm 1,6 UV-I 142 W/m 14,7 C 25,9 C 4,8 km/h (1 Bft) 100,00 %
16.08.2016 16:26 25,8 C 51 % 1012,3 hPa 0,0 l/m 1,6 km/h (1 Bft) N-NW 343 0 min 0,000 mm 1,9 UV-I 230 W/m 14,9 C 25,8 C 4,8 km/h (1 Bft) 100,00 %
16.08.2016 16:28 25,8 C 52 % 1012,3 hPa 0,0 l/m 2,4 km/h (1 Bft) NW 304 2 min 0,000 mm 2,4 UV-I 618 W/m 15,2 C 25,8 C 4,8 km/h (1 Bft) 100,00 %
16.08.2016 16:30 25,7 C 51 % 1012,3 hPa 0,0 l/m 5,4 km/h (1 Bft) W-SW 252 2 min 0,000 mm 2,2 UV-I 467 W/m 14,8 C 25,7 C 12,9 km/h (3 Bft) 100,00 %
16.08.2016 16:32 25,7 C 53 % 1012,2 hPa 0,0 l/m 3,0 km/h (1 Bft) NW 312 0 min 0,000 mm 2,0 UV-I 234 W/m 15,4 C 25,7 C 8,0 km/h (2 Bft) 100,00 %
16.08.2016 16:34 25,6 C 50 % 1012,2 hPa 0,0 l/m 1,8 km/h (1 Bft) NW 308 0 min 0,000 mm 1,7 UV-I 154 W/m 14,4 C 25,6 C 4,8 km/h (1 Bft) 100,00 %
16.08.2016 16:36 25,4 C 50 % 1012,2 hPa 0,0 l/m 4,0 km/h (1 Bft) W-NW 291 0 min 0,000 mm 1,8 UV-I 143 W/m 14,2 C 25,4 C 6,4 km/h (2 Bft) 100,00 %
16.08.2016 16:38 25,4 C 50 % 1012,2 hPa 0,0 l/m 3,0 km/h (1 Bft) NW 304 2 min 0,000 mm 2,1 UV-I 362 W/m 14,2 C 25,4 C 4,8 km/h (1 Bft) 97,87 %
16.08.2016 16:40 25,6 C 52 % 1012,2 hPa 0,0 l/m 2,6 km/h (1 Bft) W-NW 299 2 min 0,000 mm 2,2 UV-I 556 W/m 15,0 C 25,6 C 6,4 km/h (2 Bft) 100,00 %
16.08.2016 16:42 25,8 C 48 % 1012,1 hPa 0,0 l/m 4,0 km/h (1 Bft) W-NW 296 2 min 0,000 mm 2,1 UV-I 535 W/m 13,9 C 25,8 C 8,0 km/h (2 Bft) 97,56 %
16.08.2016 16:44 26,0 C 49 % 1012,1 hPa 0,0 l/m 2,4 km/h (1 Bft) SW 233 2 min 0,000 mm 2,1 UV-I 522 W/m 14,4 C 26,0 C 4,8 km/h (1 Bft) 98,11 %
16.08.2016 16:46 26,2 C 50 % 1012,2 hPa 0,0 l/m 2,9 km/h (1 Bft) W-SW 257 2 min 0,000 mm 2,0 UV-I 526 W/m 14,9 C 26,2 C 6,4 km/h (2 Bft) 100,00 %
16.08.2016 16:48 26,3 C 51 % 1012,1 hPa 0,0 l/m 2,6 km/h (1 Bft) N 355 2 min 0,000 mm 2,0 UV-I 530 W/m 15,3 C 26,3 C 6,4 km/h (2 Bft) 100,00 %
16.08.2016 16:50 26,3 C 50 % 1012,1 hPa 0,0 l/m 2,4 km/h (1 Bft) W-SW 237 2 min 0,000 mm 2,0 UV-I 540 W/m 15,0 C 26,3 C 8,0 km/h (2 Bft) 100,00 %
16.08.2016 16:52 26,4 C 50 % 1012,1 hPa 0,0 l/m 1,2 km/h (1 Bft) N-NW 334 2 min 0,000 mm 1,9 UV-I 523 W/m 15,1 C 26,4 C 3,2 km/h (1 Bft) 100,00 %
16.08.2016 16:54 26,4 C 48 % 1012,1 hPa 0,0 l/m 1,8 km/h (1 Bft) NW 313 2 min 0,000 mm 1,9 UV-I 505 W/m 14,5 C 26,4 C 6,4 km/h (2 Bft) 100,00 %
16.08.2016 16:56 26,3 C 46 % 1012,0 hPa 0,0 l/m 4,0 km/h (1 Bft) NW 311 2 min 0,000 mm 1,8 UV-I 486 W/m 13,7 C 26,3 C 8,0 km/h (2 Bft) 100,00 %
16.08.2016 16:58 26,2 C 47 % 1012,0 hPa 0,0 l/m 2,3 km/h (1 Bft) NW 308 2 min 0,000 mm 1,5 UV-I 352 W/m 14,0 C 26,2 C 4,8 km/h (1 Bft) 100,00 %
16.08.2016 17:00 25,9 C 50 % 1012,0 hPa 0,0 l/m 1,7 km/h (1 Bft) NW 308 0 min 0,000 mm 1,3 UV-I 120 W/m 14,7 C 25,9 C 4,8 km/h (1 Bft) 98,00 %
16.08.2016 17:02 25,7 C 48 % 1012,0 hPa 0,0 l/m 2,5 km/h (1 Bft) NW 306 0 min 0,330 mm 1,5 UV-I 261 W/m 13,9 C 25,7 C 4,8 km/h (1 Bft) 95,83 %
16.08.2016 17:04 25,6 C 50 % 1012,0 hPa 0,0 l/m 4,8 km/h (1 Bft) SW 225 0 min 0,000 mm 1,3 UV-I 201 W/m 14,4 C 25,6 C 9,7 km/h (2 Bft) 97,37 %
16.08.2016 17:06 25,6 C 50 % 1012,0 hPa 0,0 l/m 5,1 km/h (1 Bft) S-SW 200 0 min 0,000 mm 1,5 UV-I 167 W/m 14,4 C 25,6 C 11,3 km/h (2 Bft) 96,00 %
16.08.2016 17:08 25,6 C 51 % 1011,9 hPa 0,0 l/m 2,6 km/h (1 Bft) W 271 0 min 0,000 mm 1,3 UV-I 187 W/m 14,7 C 25,6 C 4,8 km/h (1 Bft) 97,62 %
16.08.2016 17:10 25,6 C 50 % 1011,9 hPa 0,0 l/m 2,5 km/h (1 Bft) W-NW 303 2 min 0,000 mm 1,4 UV-I 389 W/m 14,4 C 25,6 C 4,8 km/h (1 Bft) 97,83 %
16.08.2016 17:12 25,7 C 52 % 1011,9 hPa 0,0 l/m 3,3 km/h (1 Bft) W-NW 283 2 min 0,000 mm 1,3 UV-I 454 W/m 15,1 C 25,7 C 9,7 km/h (2 Bft) 94,34 %
16.08.2016 17:14 25,6 C 51 % 1011,9 hPa 0,0 l/m 4,8 km/h (1 Bft) W-NW 285 2 min 0,000 mm 1,4 UV-I 437 W/m 14,7 C 25,6 C 11,3 km/h (2 Bft) 97,87 %
16.08.2016 17:16 25,7 C 51 % 1011,8 hPa 0,0 l/m 3,7 km/h (1 Bft) W-SW 258 2 min 0,000 mm 1,4 UV-I 448 W/m 14,8 C 25,7 C 6,4 km/h (2 Bft) 98,00 %
16.08.2016 17:18 25,8 C 48 % 1011,8 hPa 0,0 l/m 3,3 km/h (1 Bft) W 278 2 min 0,000 mm 1,4 UV-I 443 W/m 13,9 C 25,8 C 6,4 km/h (2 Bft) 97,37 %
16.08.2016 17:20 25,9 C 49 % 1011,9 hPa 0,0 l/m 2,5 km/h (1 Bft) W-SW 255 2 min 0,000 mm 1,4 UV-I 432 W/m 14,4 C 25,9 C 4,8 km/h (1 Bft) 96,23 %
16.08.2016 17:22 26,0 C 48 % 1011,8 hPa 0,0 l/m 3,0 km/h (1 Bft) W 262 2 min 0,000 mm 1,4 UV-I 429 W/m 14,1 C 26,0 C 4,8 km/h (1 Bft) 98,00 %
16.08.2016 17:24 25,9 C 47 % 1011,8 hPa 0,0 l/m 3,1 km/h (1 Bft) W 275 2 min 0,000 mm 1,3 UV-I 422 W/m 13,7 C 25,9 C 6,4 km/h (2 Bft) 97,37 %
16.08.2016 17:26 25,9 C 46 % 1011,8 hPa 0,0 l/m 4,1 km/h (1 Bft) W 281 2 min 0,000 mm 1,3 UV-I 409 W/m 13,4 C 25,9 C 6,4 km/h (2 Bft) 98,11 %
16.08.2016 17:28 25,9 C 48 % 1011,8 hPa 0,0 l/m 4,9 km/h (1 Bft) W 277 2 min 0,000 mm 1,3 UV-I 401 W/m 14,0 C 25,9 C 8,0 km/h (2 Bft) 96,00 %
16.08.2016 17:30 26,1 C 49 % 1011,8 hPa 0,0 l/m 4,0 km/h (1 Bft) N-NW 346 2 min 0,000 mm 1,2 UV-I 389 W/m 14,5 C 26,1 C 11,3 km/h (2 Bft) 97,87 %
16.08.2016 17:32 26,1 C 47 % 1011,8 hPa 0,0 l/m 5,4 km/h (1 Bft) W 273 2 min 0,000 mm 1,2 UV-I 387 W/m 13,9 C 26,1 C 12,9 km/h (3 Bft) 100,00 %
16.08.2016 17:34 26,1 C 47 % 1011,8 hPa 0,0 l/m 5,3 km/h (1 Bft) W 264 2 min 0,000 mm 1,1 UV-I 373 W/m 13,9 C 26,1 C 6,4 km/h (2 Bft) 100,00 %
16.08.2016 17:36 26,0 C 47 % 1011,7 hPa 0,0 l/m 5,9 km/h (2 Bft) W-SW 238 2 min 0,000 mm 1,1 UV-I 357 W/m 13,8 C 26,0 C 11,3 km/h (2 Bft) 100,00 %
16.08.2016 17:38 25,9 C 47 % 1011,7 hPa 0,0 l/m 7,4 km/h (2 Bft) W 281 2 min 0,000 mm 1,1 UV-I 352 W/m 13,7 C 25,7 C 12,9 km/h (3 Bft) 96,43 %
16.08.2016 17:40 25,9 C 48 % 1011,6 hPa 0,0 l/m 7,2 km/h (2 Bft) SW 236 2 min 0,000 mm 1,0 UV-I 345 W/m 14,0 C 25,7 C 12,9 km/h (3 Bft) 100,00 %
16.08.2016 17:42 25,9 C 48 % 1011,6 hPa 0,0 l/m 5,6 km/h (1 Bft) W-NW 303 2 min 0,000 mm 1,0 UV-I 346 W/m 14,0 C 25,9 C 9,7 km/h (2 Bft) 100,00 %
16.08.2016 17:44 25,9 C 48 % 1011,6 hPa 0,0 l/m 2,8 km/h (1 Bft) N 9 2 min 0,000 mm 0,9 UV-I 354 W/m 14,0 C 25,9 C 6,4 km/h (2 Bft) 100,00 %
16.08.2016 17:46 25,9 C 48 % 1011,5 hPa 0,0 l/m 2,6 km/h (1 Bft) NW 304 2 min 0,000 mm 1,0 UV-I 366 W/m 14,0 C 25,9 C 4,8 km/h (1 Bft) 100,00 %
16.08.2016 17:48 25,9 C 47 % 1011,5 hPa 0,0 l/m 5,1 km/h (1 Bft) W-SW 246 2 min 0,000 mm 0,9 UV-I 360 W/m 13,7 C 25,9 C 11,3 km/h (2 Bft) 100,00 %
16.08.2016 17:50 25,9 C 48 % 1011,5 hPa 0,0 l/m 3,5 km/h (1 Bft) SW 214 2 min 0,000 mm 0,9 UV-I 347 W/m 14,0 C 25,9 C 6,4 km/h (2 Bft) 100,00 %
16.08.2016 17:52 25,8 C 49 % 1011,5 hPa 0,0 l/m 3,6 km/h (1 Bft) NW 309 2 min 0,000 mm 0,9 UV-I 332 W/m 14,3 C 25,8 C 6,4 km/h (2 Bft) 100,00 %
16.08.2016 17:54 25,8 C 49 % 1011,5 hPa 0,0 l/m 3,1 km/h (1 Bft) W-SW 250 2 min 0,000 mm 0,9 UV-I 319 W/m 14,3 C 25,8 C 12,9 km/h (3 Bft) 100,00 %
16.08.2016 17:56 25,8 C 48 % 1011,5 hPa 0,0 l/m 2,0 km/h (1 Bft) W-NW 298 2 min 0,000 mm 0,8 UV-I 309 W/m 13,9 C 25,8 C 6,4 km/h (2 Bft) 100,00 %
16.08.2016 17:58 25,8 C 50 % 1011,4 hPa 0,0 l/m 3,8 km/h (1 Bft) N 351 2 min 0,000 mm 0,8 UV-I 302 W/m 14,6 C 25,8 C 6,4 km/h (2 Bft) 100,00 %
16.08.2016 18:00 25,8 C 49 % 1011,4 hPa 0,0 l/m 1,9 km/h (1 Bft) NW 319 2 min 0,254 mm 0,8 UV-I 299 W/m 14,3 C 25,8 C 6,4 km/h (2 Bft) 100,00 %
16.08.2016 18:02 25,7 C 50 % 1011,4 hPa 0,0 l/m 3,7 km/h (1 Bft) NW 325 2 min 0,000 mm 0,7 UV-I 290 W/m 14,5 C 25,7 C 8,0 km/h (2 Bft) 98,11 %
16.08.2016 18:04 25,6 C 49 % 1011,3 hPa 0,0 l/m 5,6 km/h (1 Bft) N-NW 348 2 min 0,000 mm 0,7 UV-I 281 W/m 14,1 C 25,6 C 12,9 km/h (3 Bft) 100,00 %
16.08.2016 18:06 25,5 C 50 % 1011,3 hPa 0,0 l/m 2,7 km/h (1 Bft) N-NW 329 2 min 0,000 mm 0,7 UV-I 276 W/m 14,3 C 25,5 C 6,4 km/h (2 Bft) 97,37 %
16.08.2016 18:08 25,4 C 51 % 1011,3 hPa 0,0 l/m 4,3 km/h (1 Bft) N 9 2 min 0,000 mm 0,7 UV-I 269 W/m 14,5 C 25,4 C 9,7 km/h (2 Bft) 100,00 %
16.08.2016 18:10 25,4 C 51 % 1011,2 hPa 0,0 l/m 3,2 km/h (1 Bft) N-NO 15 2 min 0,000 mm 0,6 UV-I 265 W/m 14,5 C 25,4 C 8,0 km/h (2 Bft) 100,00 %
16.08.2016 18:12 25,4 C 51 % 1011,2 hPa 0,0 l/m 3,1 km/h (1 Bft) N-NW 335 2 min 0,000 mm 0,6 UV-I 258 W/m 14,5 C 25,4 C 6,4 km/h (2 Bft) 100,00 %
16.08.2016 18:14 25,4 C 51 % 1011,3 hPa 0,0 l/m 3,3 km/h (1 Bft) N-NW 333 2 min 0,000 mm 0,6 UV-I 252 W/m 14,5 C 25,4 C 6,4 km/h (2 Bft) 100,00 %
16.08.2016 18:16 25,3 C 50 % 1011,2 hPa 0,0 l/m 2,7 km/h (1 Bft) N-NO 19 2 min 0,000 mm 0,6 UV-I 246 W/m 14,1 C 25,3 C 6,4 km/h (2 Bft) 97,87 %
16.08.2016 18:18 25,3 C 50 % 1011,2 hPa 0,0 l/m 3,0 km/h (1 Bft) N-NW 332 2 min 0,000 mm 0,5 UV-I 239 W/m 14,1 C 25,3 C 8,0 km/h (2 Bft) 100,00 %
16.08.2016 18:20 25,2 C 51 % 1011,1 hPa 0,0 l/m 5,3 km/h (1 Bft) N-NW 342 2 min 0,000 mm 0,5 UV-I 233 W/m 14,3 C 25,2 C 12,9 km/h (3 Bft) 100,00 %
16.08.2016 18:22 25,2 C 51 % 1011,1 hPa 0,0 l/m 3,4 km/h (1 Bft) N-NW 331 2 min 0,000 mm 0,5 UV-I 228 W/m 14,3 C 25,2 C 6,4 km/h (2 Bft) 100,00 %
16.08.2016 18:24 25,2 C 52 % 1011,1 hPa 0,0 l/m 3,5 km/h (1 Bft) N 9 2 min 0,000 mm 0,5 UV-I 223 W/m 14,6 C 25,2 C 6,4 km/h (2 Bft) 100,00 %
16.08.2016 18:26 25,1 C 51 % 1011,1 hPa 0,0 l/m 2,7 km/h (1 Bft) N-NW 331 2 min 0,000 mm 0,5 UV-I 216 W/m 14,2 C 25,1 C 6,4 km/h (2 Bft) 100,00 %
16.08.2016 18:28 25,1 C 51 % 1011,1 hPa 0,0 l/m 2,9 km/h (1 Bft) NW 315 2 min 0,000 mm 0,1 UV-I 210 W/m 14,2 C 25,1 C 6,4 km/h (2 Bft) 97,44 %
16.08.2016 18:30 25,1 C 51 % 1011,1 hPa 0,0 l/m 3,6 km/h (1 Bft) N-NW 336 2 min 0,000 mm 0,0 UV-I 194 W/m 14,2 C 25,1 C 8,0 km/h (2 Bft) 97,87 %
16.08.2016 18:32 25,1 C 52 % 1011,1 hPa 0,0 l/m 2,0 km/h (1 Bft) N 350 2 min 0,000 mm 0,0 UV-I 176 W/m 14,5 C 25,1 C 3,2 km/h (1 Bft) 98,11 %
16.08.2016 18:34 25,0 C 51 % 1011,1 hPa 0,0 l/m 3,6 km/h (1 Bft) N 360 2 min 0,000 mm 0,0 UV-I 194 W/m 14,1 C 25,0 C 8,0 km/h (2 Bft) 100,00 %
16.08.2016 18:36 25,0 C 52 % 1011,1 hPa 0,0 l/m 2,4 km/h (1 Bft) N 5 2 min 0,000 mm 0,0 UV-I 187 W/m 14,4 C 25,0 C 4,8 km/h (1 Bft) 100,00 %
16.08.2016 18:38 24,9 C 51 % 1011,1 hPa 0,0 l/m 5,0 km/h (1 Bft) N-NO 29 2 min 0,000 mm 0,0 UV-I 179 W/m 14,1 C 24,9 C 9,7 km/h (2 Bft) 100,00 %
16.08.2016 18:40 24,9 C 52 % 1011,1 hPa 0,0 l/m 2,9 km/h (1 Bft) N-NO 19 2 min 0,000 mm 0,0 UV-I 173 W/m 14,4 C 24,9 C 8,0 km/h (2 Bft) 97,87 %
16.08.2016 18:42 24,8 C 52 % 1011,1 hPa 0,0 l/m 2,8 km/h (1 Bft) N 5 2 min 0,000 mm 0,0 UV-I 167 W/m 14,3 C 24,8 C 6,4 km/h (2 Bft) 97,87 %
16.08.2016 18:44 24,8 C 53 % 1011,1 hPa 0,0 l/m 3,8 km/h (1 Bft) NW 305 2 min 0,000 mm 0,0 UV-I 160 W/m 14,6 C 24,8 C 12,9 km/h (3 Bft) 100,00 %
16.08.2016 18:46 24,8 C 52 % 1011,0 hPa 0,0 l/m 4,4 km/h (1 Bft) NO 34 2 min 0,000 mm 0,0 UV-I 155 W/m 14,3 C 24,8 C 8,0 km/h (2 Bft) 96,23 %
16.08.2016 18:48 24,7 C 51 % 1011,0 hPa 0,0 l/m 3,1 km/h (1 Bft) W-NW 291 2 min 0,000 mm 0,0 UV-I 149 W/m 13,9 C 24,7 C 6,4 km/h (2 Bft) 100,00 %
16.08.2016 18:50 24,7 C 52 % 1011,0 hPa 0,0 l/m 3,5 km/h (1 Bft) N-NW 340 2 min 0,000 mm 0,0 UV-I 142 W/m 14,2 C 24,7 C 8,0 km/h (2 Bft) 100,00 %
16.08.2016 18:52 24,6 C 52 % 1011,0 hPa 0,0 l/m 3,9 km/h (1 Bft) N 360 2 min 0,000 mm 0,0 UV-I 136 W/m 14,1 C 24,6 C 8,0 km/h (2 Bft) 98,00 %
16.08.2016 18:54 24,6 C 52 % 1011,0 hPa 0,0 l/m 2,8 km/h (1 Bft) W-NW 302 2 min 0,000 mm 0,0 UV-I 130 W/m 14,1 C 24,6 C 4,8 km/h (1 Bft) 97,87 %
16.08.2016 18:56 24,5 C 52 % 1011,0 hPa 0,0 l/m 3,6 km/h (1 Bft) N-NW 335 2 min 0,000 mm 0,0 UV-I 126 W/m 14,0 C 24,5 C 8,0 km/h (2 Bft) 95,74 %
16.08.2016 18:58 24,4 C 52 % 1011,0 hPa 0,0 l/m 3,5 km/h (1 Bft) NW 320 2 min 0,000 mm 0,0 UV-I 120 W/m 13,9 C 24,4 C 6,4 km/h (2 Bft) 100,00 %
16.08.2016 19:00 24,4 C 53 % 1011,0 hPa 0,0 l/m 2,5 km/h (1 Bft) N-NW 344 2 min 0,153 mm 0,0 UV-I 113 W/m 14,2 C 24,4 C 6,4 km/h (2 Bft) 96,43 %
16.08.2016 19:02 24,3 C 52 % 1011,0 hPa 0,0 l/m 2,4 km/h (1 Bft) N-NW 340 2 min 0,000 mm 0,0 UV-I 105 W/m 13,8 C 24,3 C 4,8 km/h (1 Bft) 96,23 %
16.08.2016 19:04 24,3 C 52 % 1011,0 hPa 0,0 l/m 0,8 km/h (0 Bft) N-NW 340 0 min 0,000 mm 0,0 UV-I 98 W/m 13,8 C 24,3 C 3,2 km/h (1 Bft) 97,56 %
16.08.2016 19:06 24,3 C 54 % 1011,0 hPa 0,0 l/m 0,7 km/h (0 Bft) N-NW 340 0 min 0,000 mm 0,0 UV-I 93 W/m 14,4 C 24,3 C 1,6 km/h (1 Bft) 97,78 %
16.08.2016 19:08 24,2 C 54 % 1011,0 hPa 0,0 l/m 0,7 km/h (0 Bft) N-NW 340 0 min 0,000 mm 0,0 UV-I 89 W/m 14,3 C 24,2 C 1,6 km/h (1 Bft) 97,56 %
16.08.2016 19:10 24,1 C 54 % 1011,0 hPa 0,0 l/m 0,7 km/h (0 Bft) N-NW 340 0 min 0,000 mm 0,0 UV-I 85 W/m 14,2 C 24,1 C 1,6 km/h (1 Bft) 97,87 %
16.08.2016 19:12 24,0 C 54 % 1011,0 hPa 0,0 l/m 0,7 km/h (0 Bft) N-NW 340 0 min 0,000 mm 0,0 UV-I 80 W/m 14,1 C 24,0 C 3,2 km/h (1 Bft) 98,04 %
16.08.2016 19:14 24,0 C 55 % 1011,0 hPa 0,0 l/m 1,4 km/h (1 Bft) NW 315 0 min 0,000 mm 0,0 UV-I 76 W/m 14,4 C 24,0 C 4,8 km/h (1 Bft) 95,74 %
16.08.2016 19:16 24,0 C 55 % 1011,0 hPa 0,0 l/m 0,9 km/h (0 Bft) NW 315 0 min 0,000 mm 0,0 UV-I 69 W/m 14,4 C 24,0 C 3,2 km/h (1 Bft) 96,00 %
16.08.2016 19:18 23,9 C 55 % 1011,0 hPa 0,0 l/m 1,9 km/h (1 Bft) N-NW 329 0 min 0,000 mm 0,0 UV-I 67 W/m 14,3 C 23,9 C 3,2 km/h (1 Bft) 98,11 %
16.08.2016 19:20 23,8 C 55 % 1011,0 hPa 0,0 l/m 1,7 km/h (1 Bft) N-NW 342 0 min 0,000 mm 0,0 UV-I 63 W/m 14,2 C 23,8 C 4,8 km/h (1 Bft) 97,37 %
16.08.2016 19:22 23,8 C 55 % 1010,9 hPa 0,0 l/m 1,0 km/h (0 Bft) N 349 0 min 0,000 mm 0,0 UV-I 62 W/m 14,2 C 23,8 C 3,2 km/h (1 Bft) 95,56 %
16.08.2016 19:24 23,7 C 57 % 1010,9 hPa 0,0 l/m 0,8 km/h (0 Bft) N 349 0 min 0,000 mm 0,0 UV-I 59 W/m 14,7 C 23,7 C 3,2 km/h (1 Bft) 100,00 %
16.08.2016 19:26 23,7 C 56 % 1011,0 hPa 0,0 l/m 1,0 km/h (0 Bft) N 360 0 min 0,000 mm 0,0 UV-I 55 W/m 14,4 C 23,7 C 3,2 km/h (1 Bft) 97,87 %
16.08.2016 19:28 23,6 C 56 % 1011,0 hPa 0,0 l/m 1,1 km/h (1 Bft) N 355 0 min 0,000 mm 0,0 UV-I 51 W/m 14,3 C 23,6 C 1,6 km/h (1 Bft) 100,00 %
16.08.2016 19:30 23,6 C 56 % 1010,9 hPa 0,0 l/m 0,7 km/h (0 Bft) N 355 0 min 0,000 mm 0,0 UV-I 48 W/m 14,3 C 23,6 C 1,6 km/h (1 Bft) 100,00 %
16.08.2016 19:32 23,6 C 56 % 1010,9 hPa 0,0 l/m 0,4 km/h (0 Bft) N 355 0 min 0,000 mm 0,0 UV-I 45 W/m 14,3 C 23,6 C 1,6 km/h (1 Bft) 98,18 %
16.08.2016 19:34 23,6 C 56 % 1010,9 hPa 0,0 l/m 0,5 km/h (0 Bft) N 355 0 min 0,000 mm 0,0 UV-I 42 W/m 14,3 C 23,6 C 1,6 km/h (1 Bft) 97,37 %
16.08.2016 19:36 23,5 C 58 % 1010,9 hPa 0,0 l/m 0,4 km/h (0 Bft) N 355 0 min 0,000 mm 0,0 UV-I 39 W/m 14,7 C 23,5 C 1,6 km/h (1 Bft) 100,00 %
16.08.2016 19:38 23,5 C 56 % 1010,9 hPa 0,0 l/m 0,3 km/h (0 Bft) N 355 0 min 0,000 mm 0,0 UV-I 36 W/m 14,2 C 23,5 C 1,6 km/h (1 Bft) 96,00 %
16.08.2016 19:40 23,6 C 56 % 1010,9 hPa 0,0 l/m 0,0 km/h (0 Bft) N 355 0 min 0,000 mm 0,0 UV-I 34 W/m 14,3 C 23,6 C 0,0 km/h (0 Bft) 100,00 %
16.08.2016 19:42 23,6 C 56 % 1010,9 hPa 0,0 l/m 0,0 km/h (0 Bft) N 355 0 min 0,000 mm 0,0 UV-I 31 W/m 14,3 C 23,6 C 0,0 km/h (0 Bft) 100,00 %
16.08.2016 19:44 23,6 C 55 % 1010,9 hPa 0,0 l/m 0,0 km/h (0 Bft) N 355 0 min 0,000 mm 0,0 UV-I 29 W/m 14,0 C 23,6 C 0,0 km/h (0 Bft) 100,00 %
16.08.2016 19:46 23,3 C 63 % 1010,9 hPa 0,0 l/m 0,0 km/h (0 Bft) N 355 0 min 0,000 mm 0,0 UV-I 26 W/m 15,9 C 23,3 C 0,0 km/h (0 Bft) 100,00 %
16.08.2016 19:48 22,8 C 66 % 1010,9 hPa 0,0 l/m 0,6 km/h (0 Bft) N 355 0 min 0,000 mm 0,0 UV-I 25 W/m 16,1 C 22,8 C 1,6 km/h (1 Bft) 100,00 %
16.08.2016 19:50 22,4 C 68 % 1010,9 hPa 0,0 l/m 0,6 km/h (0 Bft) N 355 0 min 0,000 mm 0,0 UV-I 24 W/m 16,2 C 22,4 C 1,6 km/h (1 Bft) 100,00 %
16.08.2016 19:52 22,1 C 68 % 1010,9 hPa 0,0 l/m 1,3 km/h (1 Bft) N 355 0 min 0,000 mm 0,0 UV-I 22 W/m 15,9 C 22,1 C 1,6 km/h (1 Bft) 100,00 %
16.08.2016 19:54 21,8 C 69 % 1010,9 hPa 0,0 l/m 1,7 km/h (1 Bft) N 355 0 min 0,000 mm 0,0 UV-I 20 W/m 15,9 C 21,8 C 3,2 km/h (1 Bft) 100,00 %
16.08.2016 19:56 21,6 C 70 % 1010,8 hPa 0,0 l/m 0,0 km/h (0 Bft) N 355 0 min 0,000 mm 0,0 UV-I 18 W/m 15,9 C 21,6 C 1,6 km/h (1 Bft) 100,00 %
16.08.2016 19:58 21,4 C 69 % 1010,9 hPa 0,0 l/m 0,0 km/h (0 Bft) N 355 0 min 0,000 mm 0,0 UV-I 17 W/m 15,5 C 21,4 C 0,0 km/h (0 Bft) 100,00 %
16.08.2016 20:00 21,3 C 69 % 1010,8 hPa 0,0 l/m 0,0 km/h (0 Bft) N 355 2 min 0,050 mm 0,0 UV-I 16 W/m 15,4 C 21,3 C 0,0 km/h (0 Bft) 100,00 %
16.08.2016 20:02 21,3 C 70 % 1010,9 hPa 0,0 l/m 0,0 km/h (0 Bft) N 355 2 min 0,000 mm 0,0 UV-I 14 W/m 15,6 C 21,3 C 0,0 km/h (0 Bft) 98,00 %
16.08.2016 20:04 21,2 C 69 % 1010,9 hPa 0,0 l/m 0,0 km/h (0 Bft) N 355 2 min 0,000 mm 0,0 UV-I 13 W/m 15,3 C 21,2 C 1,6 km/h (1 Bft) 100,00 %
16.08.2016 20:06 21,2 C 71 % 1010,9 hPa 0,0 l/m 0,0 km/h (0 Bft) N 355 0 min 0,000 mm 0,0 UV-I 12 W/m 15,7 C 21,2 C 0,0 km/h (0 Bft) 95,92 %
16.08.2016 20:08 21,1 C 71 % 1010,8 hPa 0,0 l/m 0,0 km/h (0 Bft) N 355 0 min 0,000 mm 0,0 UV-I 11 W/m 15,6 C 21,1 C 0,0 km/h (0 Bft) 100,00 %
16.08.2016 20:10 21,1 C 71 % 1010,8 hPa 0,0 l/m 0,0 km/h (0 Bft) N 355 0 min 0,000 mm 0,0 UV-I 9 W/m 15,6 C 21,1 C 0,0 km/h (0 Bft) 100,00 %
16.08.2016 20:12 21,0 C 73 % 1010,8 hPa 0,0 l/m 0,0 km/h (0 Bft) N 355 0 min 0,000 mm 0,0 UV-I 7 W/m 16,0 C 21,0 C 0,0 km/h (0 Bft) 96,23 %
16.08.2016 20:14 20,9 C 71 % 1010,8 hPa 0,0 l/m 0,0 km/h (0 Bft) N 355 0 min 0,000 mm 0,0 UV-I 6 W/m 15,4 C 20,9 C 0,0 km/h (0 Bft) 100,00 %
16.08.2016 20:16 20,8 C 72 % 1010,9 hPa 0,0 l/m 0,0 km/h (0 Bft) N 355 0 min 0,000 mm 0,0 UV-I 5 W/m 15,6 C 20,8 C 0,0 km/h (0 Bft) 97,87 %
16.08.2016 20:18 20,7 C 72 % 1010,9 hPa 0,0 l/m 0,0 km/h (0 Bft) N 355 0 min 0,000 mm 0,0 UV-I 5 W/m 15,5 C 20,7 C 0,0 km/h (0 Bft) 100,00 %
16.08.2016 20:20 20,6 C 73 % 1010,9 hPa 0,0 l/m 0,0 km/h (0 Bft) N 355 0 min 0,000 mm 0,0 UV-I 3 W/m 15,6 C 20,6 C 0,0 km/h (0 Bft) 100,00 %
16.08.2016 20:22 20,5 C 75 % 1010,9 hPa 0,0 l/m 0,0 km/h (0 Bft) N 355 0 min 0,000 mm 0,0 UV-I 0 W/m 15,9 C 20,5 C 0,0 km/h (0 Bft) 98,00 %
16.08.2016 20:24 20,3 C 75 % 1010,9 hPa 0,0 l/m 0,0 km/h (0 Bft) N 355 0 min 0,000 mm 0,0 UV-I 0 W/m 15,7 C 20,3 C 0,0 km/h (0 Bft) 100,00 %
16.08.2016 20:26 20,3 C 75 % 1010,9 hPa 0,0 l/m 0,0 km/h (0 Bft) N 355 0 min 0,000 mm 0,0 UV-I 0 W/m 15,7 C 20,3 C 0,0 km/h (0 Bft) 100,00 %
16.08.2016 20:28 20,2 C 76 % 1010,9 hPa 0,0 l/m 0,0 km/h (0 Bft) N 355 0 min 0,000 mm 0,0 UV-I 0 W/m 15,8 C 20,2 C 0,0 km/h (0 Bft) 97,96 %
16.08.2016 20:30 20,1 C 76 % 1010,9 hPa 0,0 l/m 0,0 km/h (0 Bft) N 355 0 min 0,000 mm 0,0 UV-I 0 W/m 15,7 C 20,1 C 0,0 km/h (0 Bft) 100,00 %
16.08.2016 20:32 20,1 C 75 % 1011,0 hPa 0,0 l/m 0,0 km/h (0 Bft) N 355 0 min 0,000 mm 0,0 UV-I 0 W/m 15,5 C 20,1 C 0,0 km/h (0 Bft) 98,46 %
16.08.2016 20:34 20,2 C 75 % 1010,9 hPa 0,0 l/m 0,0 km/h (0 Bft) N 355 0 min 0,000 mm 0,0 UV-I 0 W/m 15,6 C 20,2 C 0,0 km/h (0 Bft) 100,00 %
16.08.2016 20:36 20,2 C 75 % 1011,0 hPa 0,0 l/m 0,0 km/h (0 Bft) N 355 0 min 0,000 mm 0,0 UV-I 0 W/m 15,6 C 20,2 C 0,0 km/h (0 Bft) 97,87 %
16.08.2016 20:38 20,2 C 76 % 1010,9 hPa 0,0 l/m 0,0 km/h (0 Bft) N 355 0 min 0,000 mm 0,0 UV-I 0 W/m 15,8 C 20,2 C 0,0 km/h (0 Bft) 100,00 %
16.08.2016 20:40 20,2 C 77 % 1010,9 hPa 0,0 l/m 0,0 km/h (0 Bft) N 355 0 min 0,000 mm 0,0 UV-I 0 W/m 16,0 C 20,2 C 0,0 km/h (0 Bft) 100,00 %
16.08.2016 20:42 20,2 C 78 % 1010,9 hPa 0,0 l/m 0,0 km/h (0 Bft) N 355 0 min 0,000 mm 0,0 UV-I 0 W/m 16,2 C 20,2 C 0,0 km/h (0 Bft) 100,00 %
16.08.2016 20:44 20,1 C 79 % 1010,9 hPa 0,0 l/m 0,0 km/h (0 Bft) N 355 0 min 0,000 mm 0,0 UV-I 0 W/m 16,3 C 20,1 C 0,0 km/h (0 Bft) 100,00 %
16.08.2016 20:46 20,1 C 79 % 1010,9 hPa 0,0 l/m 0,0 km/h (0 Bft) N 355 0 min 0,000 mm 0,0 UV-I 0 W/m 16,3 C 20,1 C 0,0 km/h (0 Bft) 100,00 %
16.08.2016 20:48 19,9 C 79 % 1011,0 hPa 0,0 l/m 0,4 km/h (0 Bft) N 355 0 min 0,000 mm 0,0 UV-I 0 W/m 16,1 C 19,9 C 1,6 km/h (1 Bft) 100,00 %
16.08.2016 20:50 19,9 C 76 % 1010,9 hPa 0,0 l/m 1,7 km/h (1 Bft) N 355 0 min 0,000 mm 0,0 UV-I 0 W/m 15,5 C 19,9 C 3,2 km/h (1 Bft) 97,87 %
16.08.2016 20:52 19,9 C 74 % 1011,0 hPa 0,0 l/m 0,4 km/h (0 Bft) N 355 0 min 0,000 mm 0,0 UV-I 0 W/m 15,1 C 19,9 C 1,6 km/h (1 Bft) 98,00 %
16.08.2016 20:54 20,1 C 74 % 1011,0 hPa 0,0 l/m 0,2 km/h (0 Bft) N 355 0 min 0,000 mm 0,0 UV-I 0 W/m 15,3 C 20,1 C 1,6 km/h (1 Bft) 98,00 %
16.08.2016 20:56 20,2 C 74 % 1011,0 hPa 0,0 l/m 0,0 km/h (0 Bft) N 355 0 min 0,000 mm 0,0 UV-I 0 W/m 15,4 C 20,2 C 0,0 km/h (0 Bft) 97,50 %
16.08.2016 20:58 20,2 C 77 % 1011,0 hPa 0,0 l/m 0,0 km/h (0 Bft) N 355 0 min 0,000 mm 0,0 UV-I 0 W/m 16,0 C 20,2 C 0,0 km/h (0 Bft) 97,87 %
16.08.2016 21:00 20,1 C 77 % 1011,0 hPa 0,0 l/m 0,4 km/h (0 Bft) N 355 0 min 0,000 mm 0,0 UV-I 0 W/m 15,9 C 20,1 C 1,6 km/h (1 Bft) 95,74 %
16.08.2016 21:02 20,0 C 76 % 1011,0 hPa 0,0 l/m 1,9 km/h (1 Bft) N 355 0 min 0,000 mm 0,0 UV-I 0 W/m 15,6 C 20,0 C 3,2 km/h (1 Bft) 98,00 %
16.08.2016 21:04 19,9 C 76 % 1011,0 hPa 0,0 l/m 1,7 km/h (1 Bft) N 355 0 min 0,000 mm 0,0 UV-I 0 W/m 15,5 C 19,9 C 3,2 km/h (1 Bft) 97,78 %
16.08.2016 21:06 19,9 C 75 % 1011,0 hPa 0,0 l/m 1,6 km/h (1 Bft) N 355 0 min 0,000 mm 0,0 UV-I 0 W/m 15,3 C 19,9 C 3,2 km/h (1 Bft) 95,74 %
16.08.2016 21:08 19,9 C 75 % 1011,1 hPa 0,0 l/m 2,7 km/h (1 Bft) N-NO 14 0 min 0,000 mm 0,0 UV-I 0 W/m 15,3 C 19,9 C 4,8 km/h (1 Bft) 98,00 %
16.08.2016 21:10 19,7 C 76 % 1011,1 hPa 0,0 l/m 5,9 km/h (2 Bft) N-NO 27 0 min 0,000 mm 0,0 UV-I 0 W/m 15,3 C 19,7 C 8,0 km/h (2 Bft) 98,00 %
16.08.2016 21:12 19,7 C 77 % 1011,1 hPa 0,0 l/m 5,7 km/h (1 Bft) N-NO 27 0 min 0,000 mm 0,0 UV-I 0 W/m 15,5 C 19,7 C 8,0 km/h (2 Bft) 98,00 %
16.08.2016 21:14 19,7 C 77 % 1011,1 hPa 0,0 l/m 6,5 km/h (2 Bft) NO 34 0 min 0,000 mm 0,0 UV-I 0 W/m 15,5 C 19,7 C 9,7 km/h (2 Bft) 97,37 %
16.08.2016 21:16 19,7 C 77 % 1011,1 hPa 0,0 l/m 6,0 km/h (2 Bft) N-NO 27 0 min 0,000 mm 0,0 UV-I 0 W/m 15,5 C 19,7 C 9,7 km/h (2 Bft) 93,62 %
16.08.2016 21:18 19,8 C 75 % 1011,1 hPa 0,0 l/m 6,2 km/h (2 Bft) N-NO 28 0 min 0,000 mm 0,0 UV-I 0 W/m 15,2 C 19,8 C 8,0 km/h (2 Bft) 97,56 %
16.08.2016 21:20 19,8 C 75 % 1011,1 hPa 0,0 l/m 3,2 km/h (1 Bft) N-NO 25 0 min 0,000 mm 0,0 UV-I 0 W/m 15,2 C 19,8 C 4,8 km/h (1 Bft) 96,15 %
16.08.2016 21:22 19,8 C 74 % 1011,1 hPa 0,0 l/m 4,1 km/h (1 Bft) N-NO 24 0 min 0,000 mm 0,0 UV-I 0 W/m 15,0 C 19,8 C 6,4 km/h (2 Bft) 94,00 %
16.08.2016 21:24 19,8 C 73 % 1011,1 hPa 0,0 l/m 3,9 km/h (1 Bft) N-NO 12 0 min 0,000 mm 0,0 UV-I 0 W/m 14,8 C 19,8 C 6,4 km/h (2 Bft) 100,00 %
16.08.2016 21:26 19,9 C 73 % 1011,1 hPa 0,0 l/m 3,5 km/h (1 Bft) N-NO 20 0 min 0,000 mm 0,0 UV-I 0 W/m 14,9 C 19,9 C 4,8 km/h (1 Bft) 100,00 %
16.08.2016 21:28 19,9 C 73 % 1011,1 hPa 0,0 l/m 4,0 km/h (1 Bft) NO 38 0 min 0,000 mm 0,0 UV-I 0 W/m 14,9 C 19,9 C 6,4 km/h (2 Bft) 100,00 %
16.08.2016 21:30 19,9 C 73 % 1011,1 hPa 0,0 l/m 2,9 km/h (1 Bft) NO 38 0 min 0,000 mm 0,0 UV-I 0 W/m 14,9 C 19,9 C 4,8 km/h (1 Bft) 100,00 %
16.08.2016 21:32 20,0 C 73 % 1011,2 hPa 0,0 l/m 2,8 km/h (1 Bft) NO 38 0 min 0,000 mm 0,0 UV-I 0 W/m 15,0 C 20,0 C 4,8 km/h (1 Bft) 98,21 %
16.08.2016 21:34 20,1 C 72 % 1011,1 hPa 0,0 l/m 2,1 km/h (1 Bft) NO 38 0 min 0,000 mm 0,0 UV-I 0 W/m 14,9 C 20,1 C 3,2 km/h (1 Bft) 97,56 %
16.08.2016 21:36 20,1 C 72 % 1011,0 hPa 0,0 l/m 1,1 km/h (1 Bft) NO 38 0 min 0,000 mm 0,0 UV-I 0 W/m 14,9 C 20,1 C 1,6 km/h (1 Bft) 100,00 %
16.08.2016 21:38 20,1 C 73 % 1011,0 hPa 0,0 l/m 1,5 km/h (1 Bft) NO 38 0 min 0,000 mm 0,0 UV-I 0 W/m 15,1 C 20,1 C 1,6 km/h (1 Bft) 100,00 %
16.08.2016 21:40 19,9 C 74 % 1011,0 hPa 0,0 l/m 1,6 km/h (1 Bft) NO 38 0 min 0,000 mm 0,0 UV-I 0 W/m 15,1 C 19,9 C 3,2 km/h (1 Bft) 97,87 %
16.08.2016 21:42 19,9 C 74 % 1011,0 hPa 0,0 l/m 1,9 km/h (1 Bft) NO 38 0 min 0,000 mm 0,0 UV-I 0 W/m 15,1 C 19,9 C 3,2 km/h (1 Bft) 100,00 %
16.08.2016 21:44 19,8 C 73 % 1011,0 hPa 0,0 l/m 2,4 km/h (1 Bft) NO 38 0 min 0,000 mm 0,0 UV-I 0 W/m 14,8 C 19,8 C 4,8 km/h (1 Bft) 100,00 %
16.08.2016 21:46 19,8 C 74 % 1011,0 hPa 0,0 l/m 1,7 km/h (1 Bft) NO 38 0 min 0,000 mm 0,0 UV-I 0 W/m 15,0 C 19,8 C 3,2 km/h (1 Bft) 100,00 %
16.08.2016 21:48 19,8 C 74 % 1011,1 hPa 0,0 l/m 1,3 km/h (1 Bft) NO 38 0 min 0,000 mm 0,0 UV-I 0 W/m 15,0 C 19,8 C 3,2 km/h (1 Bft) 98,00 %
16.08.2016 21:50 19,7 C 73 % 1011,0 hPa 0,0 l/m 2,6 km/h (1 Bft) NO 44 0 min 0,000 mm 0,0 UV-I 0 W/m 14,7 C 19,7 C 4,8 km/h (1 Bft) 100,00 %
16.08.2016 21:52 19,7 C 74 % 1011,0 hPa 0,0 l/m 3,4 km/h (1 Bft) NO 55 0 min 0,000 mm 0,0 UV-I 0 W/m 14,9 C 19,7 C 4,8 km/h (1 Bft) 97,87 %
16.08.2016 21:54 19,4 C 75 % 1010,9 hPa 0,0 l/m 2,8 km/h (1 Bft) NO 55 0 min 0,000 mm 0,0 UV-I 0 W/m 14,8 C 19,4 C 4,8 km/h (1 Bft) 100,00 %
16.08.2016 21:56 19,3 C 76 % 1010,9 hPa 0,0 l/m 3,6 km/h (1 Bft) O-NO 70 0 min 0,000 mm 0,0 UV-I 0 W/m 15,0 C 19,3 C 4,8 km/h (1 Bft) 100,00 %
16.08.2016 21:58 19,3 C 75 % 1010,9 hPa 0,0 l/m 2,7 km/h (1 Bft) O-NO 70 0 min 0,000 mm 0,0 UV-I 0 W/m 14,8 C 19,3 C 4,8 km/h (1 Bft) 100,00 %
16.08.2016 22:00 19,3 C 75 % 1010,9 hPa 0,0 l/m 0,7 km/h (0 Bft) O-NO 70 0 min 0,000 mm 0,0 UV-I 0 W/m 14,8 C 19,3 C 1,6 km/h (1 Bft) 100,00 %
16.08.2016 22:02 19,4 C 74 % 1010,9 hPa 0,0 l/m 0,0 km/h (0 Bft) O-NO 69 0 min 0,026 mm 0,0 UV-I 0 W/m 14,6 C 19,4 C 0,0 km/h (0 Bft) 100,00 %
16.08.2016 22:04 19,4 C 74 % 1010,9 hPa 0,0 l/m 0,0 km/h (0 Bft) O-NO 70 0 min 0,000 mm 0,0 UV-I 0 W/m 14,6 C 19,4 C 0,0 km/h (0 Bft) 100,00 %
16.08.2016 22:06 19,2 C 76 % 1011,0 hPa 0,0 l/m 0,0 km/h (0 Bft) O-NO 69 0 min 0,000 mm 0,0 UV-I 0 W/m 14,9 C 19,2 C 0,0 km/h (0 Bft) 100,00 %
16.08.2016 22:08 19,1 C 76 % 1010,9 hPa 0,0 l/m 0,4 km/h (0 Bft) O-NO 69 0 min 0,000 mm 0,0 UV-I 0 W/m 14,8 C 19,1 C 3,2 km/h (1 Bft) 100,00 %
16.08.2016 22:10 19,0 C 76 % 1010,9 hPa 0,0 l/m 2,3 km/h (1 Bft) O-NO 69 0 min 0,000 mm 0,0 UV-I 0 W/m 14,7 C 19,0 C 3,2 km/h (1 Bft) 98,11 %
16.08.2016 22:12 19,1 C 76 % 1011,0 hPa 0,0 l/m 1,9 km/h (1 Bft) O-NO 69 0 min 0,000 mm 0,0 UV-I 0 W/m 14,8 C 19,1 C 3,2 km/h (1 Bft) 97,37 %
16.08.2016 22:14 19,1 C 75 % 1010,9 hPa 0,0 l/m 2,0 km/h (1 Bft) O-NO 69 0 min 0,000 mm 0,0 UV-I 0 W/m 14,6 C 19,1 C 3,2 km/h (1 Bft) 100,00 %
16.08.2016 22:16 19,1 C 75 % 1010,9 hPa 0,0 l/m 1,4 km/h (1 Bft) O-NO 69 0 min 0,000 mm 0,0 UV-I 0 W/m 14,6 C 19,1 C 3,2 km/h (1 Bft) 100,00 %
16.08.2016 22:18 19,2 C 75 % 1010,9 hPa 0,0 l/m 1,2 km/h (1 Bft) O-NO 69 0 min 0,000 mm 0,0 UV-I 0 W/m 14,7 C 19,2 C 1,6 km/h (1 Bft) 100,00 %
16.08.2016 22:20 19,3 C 74 % 1010,9 hPa 0,0 l/m 0,0 km/h (0 Bft) O-NO 69 0 min 0,000 mm 0,0 UV-I 0 W/m 14,5 C 19,3 C 1,6 km/h (1 Bft) 100,00 %
16.08.2016 22:22 19,3 C 75 % 1010,9 hPa 0,0 l/m 1,1 km/h (1 Bft) O-NO 69 0 min 0,000 mm 0,0 UV-I 0 W/m 14,8 C 19,3 C 1,6 km/h (1 Bft) 100,00 %
16.08.2016 22:24 19,2 C 77 % 1010,9 hPa 0,0 l/m 1,3 km/h (1 Bft) O-NO 70 0 min 0,000 mm 0,0 UV-I 0 W/m 15,1 C 19,2 C 3,2 km/h (1 Bft) 100,00 %
16.08.2016 22:26 19,0 C 77 % 1010,9 hPa 0,0 l/m 1,7 km/h (1 Bft) O-NO 69 0 min 0,000 mm 0,0 UV-I 0 W/m 14,9 C 19,0 C 3,2 km/h (1 Bft) 100,00 %
16.08.2016 22:28 18,7 C 78 % 1010,9 hPa 0,0 l/m 2,2 km/h (1 Bft) O-NO 69 0 min 0,000 mm 0,0 UV-I 0 W/m 14,8 C 18,7 C 3,2 km/h (1 Bft) 98,11 %
16.08.2016 22:30 18,6 C 79 % 1010,9 hPa 0,0 l/m 4,0 km/h (1 Bft) O-NO 70 0 min 0,000 mm 0,0 UV-I 0 W/m 14,9 C 18,6 C 6,4 km/h (2 Bft) 100,00 %
16.08.2016 22:32 18,5 C 78 % 1010,9 hPa 0,0 l/m 2,4 km/h (1 Bft) O-NO 70 0 min 0,000 mm 0,0 UV-I 0 W/m 14,6 C 18,5 C 4,8 km/h (1 Bft) 100,00 %
16.08.2016 22:34 18,6 C 78 % 1011,0 hPa 0,0 l/m 0,4 km/h (0 Bft) O-NO 70 0 min 0,000 mm 0,0 UV-I 0 W/m 14,7 C 18,6 C 1,6 km/h (1 Bft) 100,00 %
16.08.2016 22:36 18,7 C 77 % 1010,9 hPa 0,0 l/m 0,4 km/h (0 Bft) O-NO 70 0 min 0,000 mm 0,0 UV-I 0 W/m 14,6 C 18,7 C 1,6 km/h (1 Bft) 100,00 %
16.08.2016 22:38 18,7 C 77 % 1010,9 hPa 0,0 l/m 0,9 km/h (0 Bft) O-NO 70 0 min 0,000 mm 0,0 UV-I 0 W/m 14,6 C 18,7 C 1,6 km/h (1 Bft) 100,00 %
16.08.2016 22:40 18,7 C 77 % 1010,9 hPa 0,0 l/m 1,8 km/h (1 Bft) O-NO 70 0 min 0,000 mm 0,0 UV-I 0 W/m 14,6 C 18,7 C 3,2 km/h (1 Bft) 96,77 %
16.08.2016 22:42 18,7 C 77 % 1010,8 hPa 0,0 l/m 0,4 km/h (0 Bft) O-NO 70 0 min 0,000 mm 0,0 UV-I 0 W/m 14,6 C 18,7 C 1,6 km/h (1 Bft) 100,00 %
16.08.2016 22:44 18,6 C 78 % 1010,9 hPa 0,0 l/m 1,6 km/h (1 Bft) O-NO 70 0 min 0,000 mm 0,0 UV-I 0 W/m 14,7 C 18,6 C 3,2 km/h (1 Bft) 100,00 %
16.08.2016 22:46 18,4 C 79 % 1010,8 hPa 0,0 l/m 3,6 km/h (1 Bft) O 84 0 min 0,000 mm 0,0 UV-I 0 W/m 14,7 C 18,4 C 4,8 km/h (1 Bft) 100,00 %
16.08.2016 22:48 18,3 C 79 % 1010,8 hPa 0,0 l/m 1,9 km/h (1 Bft) O 96 0 min 0,000 mm 0,0 UV-I 0 W/m 14,6 C 18,3 C 4,8 km/h (1 Bft) 100,00 %
16.08.2016 22:50 18,2 C 79 % 1010,8 hPa 0,0 l/m 3,3 km/h (1 Bft) O-NO 69 0 min 0,000 mm 0,0 UV-I 0 W/m 14,5 C 18,2 C 6,4 km/h (2 Bft) 100,00 %
16.08.2016 22:52 18,3 C 78 % 1010,8 hPa 0,0 l/m 3,8 km/h (1 Bft) O-NO 63 0 min 0,000 mm 0,0 UV-I 0 W/m 14,4 C 18,3 C 6,4 km/h (2 Bft) 97,56 %
16.08.2016 22:54 18,4 C 78 % 1010,8 hPa 0,0 l/m 4,2 km/h (1 Bft) O-NO 77 0 min 0,000 mm 0,0 UV-I 0 W/m 14,5 C 18,4 C 6,4 km/h (2 Bft) 97,87 %
16.08.2016 22:56 18,4 C 76 % 1010,8 hPa 0,0 l/m 3,5 km/h (1 Bft) O-NO 77 0 min 0,000 mm 0,0 UV-I 0 W/m 14,1 C 18,4 C 4,8 km/h (1 Bft) 97,62 %
16.08.2016 22:58 18,6 C 76 % 1010,7 hPa 0,0 l/m 4,9 km/h (1 Bft) O-NO 71 0 min 0,000 mm 0,0 UV-I 0 W/m 14,3 C 18,6 C 6,4 km/h (2 Bft) 97,37 %
16.08.2016 23:00 18,6 C 76 % 1010,8 hPa 0,0 l/m 4,2 km/h (1 Bft) O-NO 63 0 min 0,000 mm 0,0 UV-I 0 W/m 14,3 C 18,6 C 6,4 km/h (2 Bft) 96,88 %
16.08.2016 23:02 18,6 C 76 % 1010,8 hPa 0,0 l/m 3,5 km/h (1 Bft) O-NO 64 0 min 0,000 mm 0,0 UV-I 0 W/m 14,3 C 18,6 C 4,8 km/h (1 Bft) 96,00 %
16.08.2016 23:04 18,6 C 76 % 1010,8 hPa 0,0 l/m 2,3 km/h (1 Bft) O-NO 64 0 min 0,000 mm 0,0 UV-I 0 W/m 14,3 C 18,6 C 3,2 km/h (1 Bft) 97,44 %
16.08.2016 23:06 18,7 C 76 % 1010,8 hPa 0,0 l/m 1,1 km/h (1 Bft) O-NO 64 0 min 0,000 mm 0,0 UV-I 0 W/m 14,4 C 18,7 C 3,2 km/h (1 Bft) 98,11 %
16.08.2016 23:08 18,7 C 76 % 1010,8 hPa 0,0 l/m 2,3 km/h (1 Bft) O-NO 64 0 min 0,000 mm 0,0 UV-I 0 W/m 14,4 C 18,7 C 3,2 km/h (1 Bft) 97,73 %
16.08.2016 23:10 18,7 C 76 % 1010,8 hPa 0,0 l/m 3,4 km/h (1 Bft) O-NO 64 0 min 0,000 mm 0,0 UV-I 0 W/m 14,4 C 18,7 C 4,8 km/h (1 Bft) 98,00 %
16.08.2016 23:12 18,7 C 76 % 1010,7 hPa 0,0 l/m 3,0 km/h (1 Bft) O-NO 64 0 min 0,000 mm 0,0 UV-I 0 W/m 14,4 C 18,7 C 4,8 km/h (1 Bft) 97,87 %
16.08.2016 23:14 18,5 C 77 % 1010,7 hPa 0,0 l/m 2,4 km/h (1 Bft) O-NO 64 0 min 0,000 mm 0,0 UV-I 0 W/m 14,4 C 18,5 C 3,2 km/h (1 Bft) 97,37 %
16.08.2016 23:16 18,3 C 77 % 1010,7 hPa 0,0 l/m 2,1 km/h (1 Bft) O-NO 64 0 min 0,000 mm 0,0 UV-I 0 W/m 14,2 C 18,3 C 3,2 km/h (1 Bft) 96,43 %
16.08.2016 23:18 18,2 C 78 % 1010,6 hPa 0,0 l/m 1,9 km/h (1 Bft) O-NO 64 0 min 0,000 mm 0,0 UV-I 0 W/m 14,3 C 18,2 C 3,2 km/h (1 Bft) 97,87 %
16.08.2016 23:20 18,2 C 78 % 1010,7 hPa 0,0 l/m 1,0 km/h (0 Bft) O-NO 64 0 min 0,000 mm 0,0 UV-I 0 W/m 14,3 C 18,2 C 3,2 km/h (1 Bft) 97,87 %
16.08.2016 23:22 18,0 C 79 % 1010,7 hPa 0,0 l/m 1,1 km/h (1 Bft) O-NO 63 0 min 0,000 mm 0,0 UV-I 0 W/m 14,3 C 18,0 C 3,2 km/h (1 Bft) 94,29 %
16.08.2016 23:24 17,7 C 80 % 1010,7 hPa 0,0 l/m 1,3 km/h (1 Bft) O-NO 63 0 min 0,000 mm 0,0 UV-I 0 W/m 14,2 C 17,7 C 3,2 km/h (1 Bft) 98,04 %
16.08.2016 23:26 17,6 C 81 % 1010,7 hPa 0,0 l/m 2,3 km/h (1 Bft) O-NO 63 0 min 0,000 mm 0,0 UV-I 0 W/m 14,3 C 17,6 C 3,2 km/h (1 Bft) 96,00 %
16.08.2016 23:28 17,5 C 82 % 1010,7 hPa 0,0 l/m 0,2 km/h (0 Bft) O-NO 63 0 min 0,000 mm 0,0 UV-I 0 W/m 14,4 C 17,5 C 1,6 km/h (1 Bft) 98,11 %
16.08.2016 23:30 17,6 C 82 % 1010,7 hPa 0,0 l/m 0,0 km/h (0 Bft) O-NO 63 0 min 0,000 mm 0,0 UV-I 0 W/m 14,5 C 17,6 C 1,6 km/h (1 Bft) 100,00 %
16.08.2016 23:32 17,6 C 81 % 1010,7 hPa 0,0 l/m 0,0 km/h (0 Bft) O-NO 63 0 min 0,000 mm 0,0 UV-I 0 W/m 14,3 C 17,6 C 0,0 km/h (0 Bft) 97,87 %
16.08.2016 23:34 17,6 C 81 % 1010,8 hPa 0,0 l/m 0,0 km/h (0 Bft) O-NO 63 0 min 0,000 mm 0,0 UV-I 0 W/m 14,3 C 17,6 C 0,0 km/h (0 Bft) 100,00 %
16.08.2016 23:36 17,6 C 81 % 1010,7 hPa 0,0 l/m 0,0 km/h (0 Bft) O-NO 63 0 min 0,000 mm 0,0 UV-I 0 W/m 14,3 C 17,6 C 0,0 km/h (0 Bft) 100,00 %
16.08.2016 23:38 17,6 C 82 % 1010,6 hPa 0,0 l/m 2,3 km/h (1 Bft) O-NO 63 0 min 0,000 mm 0,0 UV-I 0 W/m 14,5 C 17,6 C 3,2 km/h (1 Bft) 97,56 %
16.08.2016 23:40 17,5 C 82 % 1010,6 hPa 0,0 l/m 2,9 km/h (1 Bft) O-NO 63 0 min 0,000 mm 0,0 UV-I 0 W/m 14,4 C 17,5 C 3,2 km/h (1 Bft) 100,00 %
16.08.2016 23:42 17,4 C 83 % 1010,6 hPa 0,0 l/m 2,7 km/h (1 Bft) O-NO 63 0 min 0,000 mm 0,0 UV-I 0 W/m 14,5 C 17,4 C 4,8 km/h (1 Bft) 100,00 %
16.08.2016 23:44 17,3 C 83 % 1010,5 hPa 0,0 l/m 2,6 km/h (1 Bft) O-NO 63 0 min 0,000 mm 0,0 UV-I 0 W/m 14,4 C 17,3 C 3,2 km/h (1 Bft) 100,00 %
16.08.2016 23:46 17,2 C 83 % 1010,5 hPa 0,0 l/m 3,4 km/h (1 Bft) O-NO 69 0 min 0,000 mm 0,0 UV-I 0 W/m 14,3 C 17,2 C 4,8 km/h (1 Bft) 100,00 %
16.08.2016 23:48 17,1 C 83 % 1010,5 hPa 0,0 l/m 3,5 km/h (1 Bft) O-NO 68 0 min 0,000 mm 0,0 UV-I 0 W/m 14,2 C 17,1 C 4,8 km/h (1 Bft) 100,00 %
16.08.2016 23:50 17,2 C 82 % 1010,4 hPa 0,0 l/m 3,5 km/h (1 Bft) O-NO 67 0 min 0,000 mm 0,0 UV-I 0 W/m 14,1 C 17,2 C 4,8 km/h (1 Bft) 100,00 %
16.08.2016 23:52 17,3 C 81 % 1010,4 hPa 0,0 l/m 3,7 km/h (1 Bft) O-NO 67 0 min 0,000 mm 0,0 UV-I 0 W/m 14,0 C 17,3 C 6,4 km/h (2 Bft) 100,00 %
16.08.2016 23:54 17,4 C 81 % 1010,4 hPa 0,0 l/m 3,0 km/h (1 Bft) O-NO 67 0 min 0,000 mm 0,0 UV-I 0 W/m 14,1 C 17,4 C 4,8 km/h (1 Bft) 100,00 %
16.08.2016 23:56 17,5 C 81 % 1010,4 hPa 0,0 l/m 1,3 km/h (1 Bft) O-NO 57 0 min 0,000 mm 0,0 UV-I 0 W/m 14,2 C 17,5 C 3,2 km/h (1 Bft) 100,00 %
16.08.2016 23:58 17,6 C 80 % 1010,5 hPa 0,0 l/m 2,3 km/h (1 Bft) NO 47 0 min 0,000 mm 0,0 UV-I 0 W/m 14,1 C 17,6 C 4,8 km/h (1 Bft) 100,00 %
_ Min-Zeit 05:42 16:56 23:50 - 00:00 - - - - - - 05:32 05:32 00:00 02:02
Minimum _ 13,5 C 46 % 1010,4 hPa - 0,0 km/h (0 Bft) - - - - - - 13,0 C 13,6 C 0,0 km/h (0 Bft) 92,11 %
_ Max-Zeit 16:54 06:44 00:02 00:00 15:46 - - 09:06 14:00 13:04 14:40 12:10 16:52 09:52 00:04
Maximum _ 26,5 C 98 % 1017,3 hPa 0,0 l/m 12,8 km/h
W-SW (3 Bft)
- - 2 min 0,508 mm 5,6 UV-I 847 W/m 17,9 C 26,4 C 17,7 km/h
O-SO (3 Bft)
100,00 %
Durchschnitt _ 19,5 C 78 % 1014,2 hPa #0,0 l/m 2,2 km/h (1 Bft) O-NO - #8:28 h #3,734 mm 3,1 UV-I 403 W/m 15,0 C 19,5 C 4,4 km/h (1 Bft) 98,76 %